     2.00           OBSERVATION DATA    G (GPS)             RINEX VERSION / TYPE
teqc 1998Jul1 Tom Herring 19980807 21:18:48UTC              PGM / RUN BY / DATE
HP-UX 10.20|PA-RISC|cc A.10.32.03|=+|=|                     COMMENT
BIT 2 OF LLI FLAGS DATA COLLECTED UNDER A/S CONDITION       COMMENT
HOLC                                                        MARKER NAME
JEG MIT                                                     OBSERVER / AGENCY
368 ASHTECH Z-XII3 1E95                                     REC # / TYPE / VERS
477 unknown                                                 ANT # / TYPE
        0.0000        0.0000        0.0000                  APPROX POSITION XYZ
        0.0000        0.0000        0.0000                  ANTENNA: DELTA H/E/N
     1     1                                                WAVELENGTH FACT L1/2
     7    L1    L2    C1    P1    P2    S1    S2            # / TYPES OF OBSERV
    30.0000                                                 INTERVAL
SNR is mapped to RINEX snr flag value [1-9]                 COMMENT
L1: 1 -> 1; 90 -> 5; 210 -> 9                               COMMENT
L2: 1 -> 1; 150 -> 5; 250 -> 9                              COMMENT
  1998     7    30     0     0   30.000000                  TIME OF FIRST OBS
                                                            END OF HEADER
 98  7 30  0  0 30.0000000  0  8G14G21G 1G25G15G 8G31G29
  -2052307.62649  -1298471.78445  24723701.220    24723700.918    24723708.841
       214.000         144.000
  16867725.40249  13493784.25646  21949434.602    21949434.083    21949439.558
       231.000         174.000
   7778750.42749   6230400.06747  21548477.020    21548476.480    21548481.369
       238.000         192.000
  -7803966.42349  -5836068.58347  21449475.449    21449475.267    21449479.928
       240.000         195.000
 -10173509.06149  -7775851.59246  21569485.479    21569484.736    21569490.235
       235.000         187.000
  13299387.19149  10671463.29545  23790879.026    23790878.518    23790885.065
       202.000         139.000
  17480060.36549  13625690.19445  24396247.216    24396246.730    24396255.214
       205.000         136.000
  -2175801.39749  -1687240.60847  20504850.398    20504850.228    20504853.789
       246.000         208.000
 98  7 30  0  1  0.0000000  0  8G14G21G 1G25G15G 8G31G29
  -2085758.30949  -1324537.12445  24717335.778    24717335.445    24717343.343
       214.000         146.000
  16964240.74549  13568990.97446  21967800.874    21967800.368    21967805.890
       230.000         174.000
   7889064.08349   6316358.73547  21569469.008    21569468.488    21569473.370
       238.000         192.000
  -7817856.74949  -5846892.17647  21446832.200    21446832.007    21446836.690
       241.000         195.000
 -10195586.68649  -7793054.91046  21565284.196    21565283.505    21565288.957
       236.000         187.000
  13431160.94149  10774144.06745  23815954.787    23815954.127    23815960.668
       207.000         140.000
  17604448.76149  13722616.09445  24419917.653    24419917.043    24419925.786
       207.000         138.000
  -2108728.40549  -1634975.93447  20517613.882    20517613.732    20517617.351
       247.000         208.000
 98  7 30  0  1 30.0000000  0  8G14G21G 1G25G15G 8G31G29
  -2119236.67549  -1350624.02145  24710964.935    24710964.585    24710972.611
       214.000         146.000
  17061006.32849  13644392.70446  21986214.743    21986214.270    21986219.767
       231.000         174.000
   7999558.74149   6402458.44047  21590495.488    21590494.991    21590499.811
       239.000         192.000
  -7831332.94149  -5857393.06747  21444267.762    21444267.552    21444272.184
       241.000         196.000
 -10217215.15349  -7809908.23546  21561168.483    21561167.724    21561173.179
       236.000         187.000
  13563329.66849  10877132.63045  23841105.806    23841105.216    23841111.622
       205.000         141.000
  17728938.65549  13819621.07845  24443607.390    24443606.703    24443615.458
       208.000         140.000
  -2041365.33349  -1582485.22447  20530432.638    20530432.507    20530436.153
       247.000         208.000
 98  7 30  0  2  0.0000000  0  8G14G21G 1G25G15G 8G31G29
  -2152749.83249  -1376738.08845  24704587.588    24704587.470    24704595.259
       209.000         144.000
  17158004.96249  13719976.01846  22004673.056    22004672.542    22004678.018
       230.000         174.000
   8110232.40149   6488697.62647  21611555.973    21611555.481    21611560.287
       239.000         191.000
  -7844391.97449  -5867568.89747  21441782.678    21441782.483    21441787.050
       241.000         196.000
 -10238394.75549  -7826411.79846  21557138.034    21557137.324    21557142.763
       236.000         187.000
  13695888.70349  10980425.31545  23866331.023    23866330.313    23866336.808
       203.000         139.000
  17853499.65049  13916681.45145  24467310.552    24467310.133    24467318.748
       211.000         142.000
  -1973716.42249  -1529771.78247  20543305.789    20543305.655    20543309.300
       248.000         208.000
 98  7 30  0  2 30.0000000  0  8G14G21G 1G25G15G 8G31G29
  -2186309.78349  -1402888.56045  24698201.234    24698201.161    24698208.940
       208.000         143.000
  17255218.42549  13795726.73446  22023172.143    22023171.646    22023177.145
       229.000         173.000
   8221067.11849   6575062.31947  21632647.166    21632646.650    21632651.487
       239.000         192.000
  -7857039.71349  -5877424.23847  21439375.884    21439375.699    21439380.183
       241.000         196.000
 -10259126.61949  -7842566.47446  21553192.900    21553192.186    21553197.589
       237.000         187.000
  13828827.71449  11084014.09645  23891628.467    23891627.920    23891634.376
       206.000         140.000
  17978125.77049  14013792.57745  24491026.363    24491025.955    24491034.420
       213.000         144.000
  -1905797.51849  -1476847.96247  20556230.319    20556230.198    20556233.822
       248.000         208.000
 98  7 30  0  3  0.0000000  0  8G14G21G 1G25G15G 8G31G29
  -2219910.17249  -1429070.52945  24691807.154    24691807.048    24691814.934
       206.000         142.000
  17352648.50549  13871646.24846  22041712.490    22041712.020    22041717.515
       229.000         173.000
   8332062.64149   6661552.31547  21653768.949    21653768.438    21653773.289
       239.000         192.000
  -7869273.86049  -5886957.29647  21437047.699    21437047.531    21437052.002
       240.000         196.000
 -10279402.23749  -7858365.62846  21549334.581    21549333.867    21549339.194
       236.000         187.000
  13962153.47549  11187904.22845  23916999.690    23916999.195    23917005.583
       205.000         141.000
  18102818.66549  14110955.74145  24514754.900    24514754.239    24514762.758
       213.000         143.000
  -1837601.32149  -1423708.07547  20569207.608    20569207.514    20569211.087
       248.000         207.000
 98  7 30  0  3 30.0000000  0  8G14G21G 1G25G15G 8G31G29
  -2253562.72349  -1455293.14345  24685403.304    24685403.181    24685411.100
       207.000         142.000
  17450308.25949  13947744.72046  22060296.587    22060296.064    22060301.548
       228.000         172.000
   8443222.69249   6748170.51047  21674922.074    21674921.534    21674926.427
       239.000         192.000
  -7881090.74249  -5896165.21747  21434798.979    21434798.818    21434803.244
       241.000         197.000
 -10299220.28049  -7873808.23446  21545563.335    21545562.608    21545567.862
       237.000         187.000
  14095849.63849  11292082.99845  23942441.257    23942440.693    23942447.181
       207.000         140.000
  18227573.84149  14208167.41445  24538495.120    24538494.453    24538502.963
       213.000         143.000
  -1769124.85349  -1370349.78847  20582238.307    20582238.183    20582241.700
       247.000         207.000
 98  7 30  0  4  0.0000000  0  8G14G21G 1G25G15G 8G31G29
  -2287271.65049  -1481559.69245  24678988.468    24678988.502    24678996.173
       203.000         138.000
  17548206.62749  14024029.11746  22078926.074    22078925.528    22078931.015
       228.000         172.000
   8554562.77349   6834928.98747  21696109.371    21696108.866    21696113.765
       239.000         192.000
  -7892492.22849  -5905049.45247  21432629.364    21432629.180    21432633.613
       241.000         197.000
 -10318578.10949  -7888892.23746  21541879.635    21541878.937    21541884.079
       237.000         186.000
  14229899.21449  11396537.15545  23967950.010    23967949.504    23967956.101
       206.000         140.000
  18352403.54949  14305437.16645  24562249.651    24562249.008    24562257.461
       214.000         143.000
  -1700371.96149  -1316776.10647  20595321.560    20595321.436    20595324.914
       248.000         207.000
 98  7 30  0  4 30.0000000  0  8G14G21G 1G25G15G 8G31G29
  -2321036.43649  -1507869.75845  24672563.051    24672563.280    24672570.975
       203.000         138.000
  17646362.69549  14100514.32646  22097604.489    22097604.017    22097609.461
       229.000         172.000
   8666084.82549   6921829.26347  21717331.348    21717330.835    21717335.714
       239.000         192.000
  -7903480.08449  -5913611.37147  21430538.416    21430538.197    21430542.669
       240.000         197.000
 -10337472.78949  -7903615.33146  21538284.051    21538283.367    21538288.456
       238.000         187.000
  14364308.61549  11501271.67345  23993527.307    23993526.607    23993533.423
       206.000         139.000
  18477322.78149  14402776.68845  24586021.311    24586020.632    24586028.778
       215.000         142.000
  -1631337.55749  -1262983.05847  20608458.344    20608458.221    20608461.718
       248.000         207.000
 98  7 30  0  5  0.0000000  0  8G14G21G 1G25G15G 8G31G29
  -2354851.47549  -1534218.96745  24666128.098    24666128.166    24666136.009
       204.000         137.000
  17744812.45749  14177228.39146  22116338.902    22116338.388    22116343.860
       228.000         172.000
   8777802.82149   7008882.21747  21738590.641    21738590.117    21738594.984
       240.000         192.000
  -7914027.51549  -5921830.11247  21428531.254    21428531.047    21428535.556
       241.000         197.000
 -10355898.66249  -7917973.13246  21534777.778    21534777.074    21534782.101
       238.000         187.000
  14499083.36849  11606290.90345  24019174.257    24019173.522    24019180.156
       204.000         139.000
  18602326.37549  14500181.95245  24609808.911    24609808.254    24609816.248
       213.000         142.000
  -1561997.78049  -1208952.06847  20621653.279    20621653.177    20621656.649
       248.000         208.000
 98  7 30  0  5 30.0000000  0  8G14G21G 1G25G15G 8G31G29
  -2388715.34149  -1560606.27945  24659683.913    24659683.837    24659692.017
       202.000         137.000
  17843566.55149  14254179.59946  22135131.235    22135130.648    22135136.198
       227.000         172.000
   8889703.79949   7096077.76447  21759884.755    21759884.225    21759889.087
       239.000         193.000
  -7924125.64049  -5929698.74047  21426609.567    21426609.397    21426613.940
       241.000         198.000
 -10373861.99949  -7931970.50747  21531359.493    21531358.751    21531363.752
       238.000         188.000
  14634218.74349  11711591.14445  24044889.643    24044888.890    24044895.682
       205.000         139.000
  18727411.85549  14597650.99145  24633612.116    24633611.534    24633619.375
       213.000         139.000
  -1492362.55249  -1154690.85247  20634904.443    20634904.323    20634907.831
       248.000         208.000
 98  7 30  0  6  0.0000000  0  8G14G21G 1G25G15G 8G31G29
  -2422608.59449  -1587016.45945  24653234.078    24653234.151    24653242.151
       204.000         136.000
  17942617.00049  14331361.72546  22153979.775    22153979.279    22153984.864
       227.000         171.000
   9001790.71949   7183418.19947  21781214.199    21781213.669    21781218.561
       240.000         193.000
  -7933755.59549  -5937202.56747  21424776.992    21424776.836    21424781.368
       241.000         198.000
 -10391358.73049  -7945604.29147  21528029.996    21528029.275    21528034.235
       238.000         188.000
  14769725.10149  11817180.44045  24070675.541    24070675.129    24070681.695
       206.000         138.000
  18852581.30649  14695185.49745  24657431.246    24657430.526    24657438.394
       209.000         137.000
  -1422444.89549  -1100209.56747  20648209.331    20648209.212    20648212.733
       248.000         208.000
 98  7 30  0  6 30.0000000  0  8G14G21G 1G25G15G 8G31G29
  -2456511.91549  -1613434.51845  24646782.353    24646782.428    24646790.166
       206.000         137.000
  18041981.13949  14408788.28646  22172888.139    22172887.630    22172893.274
       228.000         171.000
   9114065.05349   7270904.66247  21802579.316    21802578.799    21802583.717
       240.000         193.000
  -7942890.57649  -5944320.68947  21423038.642    21423038.479    21423043.045
       242.000         198.000
 -10408367.76349  -7958858.05547  21524793.276    21524792.556    21524797.504
       239.000         188.000
  14905623.52049  11923075.23545  24096536.133    24096535.735    24096542.675
       203.000         137.000
  18977836.98549  14792787.15845  24681266.693    24681266.045    24681273.984
       210.000         134.000
  -1352233.55249  -1045499.43547  20661570.105    20661569.963    20661573.505
       247.000         208.000
 98  7 30  0  7  0.0000000  0  8G14G21G 1G25G15G 8G31G29
  -2490441.09349  -1639872.73345  24640325.956    24640325.788    24640333.309
       203.000         137.000
  18141630.00149  14486436.72146  22191850.729    22191850.212    22191855.953
       226.000         170.000
   9226513.91649   7358527.12447  21823977.632    21823977.145    21823982.048
       240.000         193.000
  -7951550.94549  -5951068.98547  21421390.579    21421390.430    21421394.998
       242.000         198.000
 -10424901.71649  -7971741.62747  21521646.985    21521646.255    21521651.125
       239.000         189.000
  15041880.09749  12029249.12145  24122464.887    24122464.495    24122471.687
       205.000         137.000
  19103159.56249  14890440.95045  24705114.903    24705114.404    24705122.325
       209.000         132.000
  -1281753.16349   -990579.65247  20674982.072    20674981.938    20674985.485
       248.000         207.000
 98  7 30  0  7 30.0000000  0  8G14G21G 1G25G15G 8G31G29
  -2524392.08749  -1666327.96545  24633865.367    24633865.060    24633872.434
       203.000         137.000
  18241528.92549  14564279.98546  22210860.911    22210860.371    22210866.103
       226.000         169.000
   9339124.16149   7446275.35447  21845406.759    21845406.220    21845411.091
       240.000         193.000
  -7959763.14249  -5957468.05947  21419827.849    21419827.682    21419832.247
       242.000         199.000
 -10440958.74349  -7984253.58147  21518591.357    21518590.660    21518595.506
       239.000         189.000
  15178480.45549  12135690.90245  24148459.061    24148458.720    24148465.755
       207.000         137.000
  19228548.46349  14988146.42144  24728975.863    24728975.217    24728983.007
       207.000         131.000
  -1211028.07049   -935469.18247  20688440.581    20688440.471    20688444.008
       246.000         207.000
 98  7 30  0  8  0.0000000  0  8G14G21G 1G25G15G 8G31G29
  -2558369.50049  -1692803.74245  24627399.618    24627399.206    24627406.730
       204.000         138.000
  18341663.57449  14642306.93846  22229915.875    22229915.439    22229921.104
       226.000         169.000
   9451895.51049   7534149.11047  21866866.440    21866865.894    21866870.769
       240.000         192.000
  -7967550.79149  -5963536.31747  21418345.919    21418345.748    21418350.265
       242.000         199.000
 -10456541.93149  -7996396.29747  21515625.947    21515625.273    21515630.090
       239.000         189.000
  15315402.94249  12242383.67445  24174514.644    24174514.312    24174521.173
       208.000         138.000
  19353986.45749  15085890.14244  24752845.825    24752845.010    24752853.193
       207.000         130.000
  -1140055.98849   -880166.26047  20701946.080    20701945.981    20701949.538
       246.000         207.000
 98  7 30  0  8 30.0000000  0  8G14G21G 1G25G15G 8G31G29
  -2592374.30149  -1719300.87045  24620928.646    24620928.237    24620935.711
       204.000         137.000
  18442052.12149  14720531.74146  22249019.163    22249018.725    22249024.422
       225.000         168.000
   9564825.92649   7622146.81547  21888356.331    21888355.827    21888360.669
       241.000         192.000
  -7974925.97049  -5969283.17047  21416942.437    21416942.269    21416946.762
       243.000         199.000
 -10471641.48349  -8008162.16847  21512752.580    21512751.892    21512756.748
       239.000         189.000
  15452641.89549  12349323.05045  24200630.523    24200630.014    24200636.963
       206.000         137.000
  19479468.91749  15183668.52044  24776724.406    24776723.561    24776731.941
       210.000         131.000
  -1068808.06449   -824648.39947  20715504.059    20715503.975    20715507.559
       245.000         207.000
 98  7 30  0  9  0.0000000  0  8G14G21G 1G25G15G 8G31G29
  -2626398.88749  -1745813.40845  24614453.948    24614453.519    24614461.123
       206.000         139.000
  18542697.39949  14798956.58246  22268171.327    22268170.886    22268176.582
       225.000         167.000
   9677911.51449   7710265.43247  21909875.845    21909875.309    21909880.158
       241.000         191.000
  -7981889.49849  -5974709.25647  21415617.333    21415617.157    21415621.635
       243.000         200.000
 -10486258.31749  -8019551.88947  21509971.059    21509970.368    21509975.227
       240.000         190.000
  15590192.40949  12456505.19845  24226805.654    24226805.031    24226811.938
       206.000         138.000
  19604996.64649  15281482.14845  24800611.769    24800610.764    24800619.283
       210.000         133.000
   -997277.58249   -768910.36747  20729115.808    20729115.742    20729119.360
       245.000         207.000
 98  7 30  0  9 30.0000000  0  8G14G21G 1G25G15G 8G31G29
  -2660439.26449  -1772338.23945  24607976.311    24607975.823    24607983.547
       204.000         139.000
  18643611.06949  14877590.56246  22287374.577    22287374.102    22287379.757
       224.000         167.000
   9791141.13949   7798496.29047  21931422.750    21931422.202    21931427.051
       240.000         191.000
  -7988425.88149  -5979802.50447  21414373.517    21414373.338    21414377.778
       243.000         200.000
 -10500391.33049  -8030564.60547  21507281.634    21507280.929    21507285.790
       240.000         190.000
  15728054.27349  12563929.96845  24253039.850    24253039.350    24253046.149
       204.000         139.000
  19730564.03749  15379326.69745  24824506.507    24824505.613    24824514.146
       210.000         134.000
   -925458.79149   -712947.67447  20742782.501    20742782.410    20742786.028
       246.000         207.000
 98  7 30  0 10  0.0000000  0  8G14G21G 1G25G15G 8G31G29
  -2694505.65349  -1798883.33445  24601493.577    24601492.931    24601500.574
       202.000         139.000
  18744821.32249  14956455.65846  22306634.362    22306633.908    22306639.463
       224.000         167.000
   9904520.96849   7886844.18647  21952998.157    21952997.656    21953002.522
       240.000         190.000
  -7994506.48049  -5984540.59347  21413216.354    21413216.189    21413220.643
       244.000         200.000
 -10514032.00549  -8041193.68447  21504685.853    21504685.166    21504690.016
       240.000         191.000
  15866244.22549  12671610.38545  24279336.474    24279335.965    24279342.989
       206.000         138.000
  19856177.42349  15477207.11045  24848409.821    24848409.004    24848417.955
       210.000         136.000
   -853335.73149   -656747.88147  20756507.074    20756506.979    20756510.593
       246.000         207.000
 98  7 30  0 10 30.0000000  0  8G14G21G 1G25G15G 8G31G29
  -2728606.95749  -1825455.66645  24595004.009    24595003.584    24595011.205
       203.000         140.000
  18846319.98649  15035545.47146  22325948.921    22325948.488    22325954.108
       225.000         167.000
  10018027.63949   7975290.92247  21974597.696    21974597.203    21974602.079
       240.000         190.000
  -8000114.39049  -5988910.35847  21412149.162    21412148.978    21412153.395
       244.000         200.000
 -10527177.17649  -8051436.66347  21502184.436    21502183.738    21502188.551
       240.000         191.000
  16004774.66749  12779556.11145  24305698.051    24305697.486    24305704.366
       207.000         139.000
  19981852.03049  15575135.22045  24872324.946    24872324.177    24872333.362
       213.000         139.000
   -780925.45349   -600324.28647  20770286.336    20770286.230    20770289.769
       246.000         207.000
 98  7 30  0 11  0.0000000  0  8G14G21G 1G25G15G 8G31G29
  -2762752.82149  -1852062.71345  24588505.994    24588505.822    24588513.455
       204.000         140.000
  18948084.33249  15114842.32446  22345314.152    22345313.621    22345319.320
       224.000         167.000
  10131643.76949   8063822.95447  21996218.157    21996217.695    21996222.524
       241.000         190.000
  -8005242.02849  -5992905.88647  21411173.399    21411173.213    21411177.612
       244.000         201.000
 -10539830.89249  -8061296.68147  21499776.460    21499775.765    21499780.610
       240.000         191.000
  16143640.29549  12887763.03445  24332123.382    24332122.613    24332129.807
       205.000         138.000
  20107591.88949  15673114.15945  24896252.648    24896251.854    24896261.107
       215.000         141.000
   -708245.53149   -543690.57847  20784116.934    20784116.815    20784120.265
       246.000         206.000
 98  7 30  0 11 30.0000000  0  8G14G21G 1G25G15G 8G31G29
  -2796946.11449  -1878706.70645  24581999.148    24581998.947    24582006.705
       207.000         140.000
  19050100.97549  15194335.77546  22364727.200    22364726.702    22364732.496
       223.000         167.000
  10245378.65449   8152447.52047  22017861.251    22017860.762    22017865.572
       241.000         191.000
  -8009883.72249  -5996522.75347  21410290.063    21410289.895    21410294.282
       244.000         201.000
 -10551986.20549  -8070768.33947  21497463.384    21497462.676    21497467.531
       240.000         191.000
  16282846.98449  12996235.70645  24358613.544    24358612.743    24358620.123
       207.000         138.000
  20233390.76149  15771139.06745  24920191.507    24920190.681    24920199.983
       213.000         141.000
   -635306.03049   -486854.60147  20797996.888    20797996.757    20798000.182
       246.000         206.000
 98  7 30  0 12  0.0000000  0  8G14G21G 1G25G15G 8G31G29
  -2831189.97749  -1905390.10345  24575482.711    24575482.428    24575490.231
       201.000         139.000
  19152354.40349  15274013.72846  22384185.267    22384184.812    22384190.765
       223.000         167.000
  10359234.23849   8241166.14147  22039527.364    22039526.863    22039531.662
       241.000         191.000
  -8014053.75249  -5999772.09547  21409496.500    21409496.334    21409500.709
       244.000         201.000
 -10563642.48949  -8079851.13447  21495245.221    21495244.502    21495249.355
       240.000         191.000
  16422401.99949  13104979.80745  24385170.108    24385169.478    24385176.719
       209.000         138.000
  20359246.57149  15869208.34245  24944141.124    24944140.222    24944149.768
       212.000         140.000
   -562119.03049   -429825.77747  20811923.921    20811923.785    20811927.185
       246.000         206.000
 98  7 30  0 12 30.0000000  0  8G14G21G 1G25G15G 8G31G29
  -2865469.54649  -1932101.30945  24568959.589    24568959.392    24568967.042
       209.000         142.000
  19254833.02449  15353867.15546  22403686.331    22403685.871    22403691.810
       224.000         167.000
  10473214.41949   8329981.84347  22061217.096    22061216.607    22061221.403
       241.000         190.000
  -8017768.17249  -6002666.41147  21408789.648    21408789.493    21408793.850
       245.000         201.000
 -10574801.79949  -8088546.67847  21493121.577    21493120.902    21493125.789
       240.000         192.000
  16562288.68049  13213982.35645  24411789.827    24411788.990    24411796.254
       208.000         138.000
  20485148.02649  15967313.19645  24968099.436    24968098.605    24968108.100
       213.000         140.000
   -488698.93149   -372615.31447  20825895.310    20825895.193    20825898.620
       245.000         206.000
 98  7 30  0 13  0.0000000  0  8G14G21G 1G25G15G 8G31G29
  -2899771.60649  -1958830.08345  24562432.203    24562432.012    24562439.371
       211.000         143.000
  19357555.96449  15433910.96746  22423233.965    22423233.509    22423239.396
       224.000         168.000
  10587359.79949   8418926.26547  22082938.270    22082937.781    22082942.583
       240.000         190.000
  -8021024.64149  -6005203.88647  21408169.986    21408169.802    21408174.114
       245.000         201.000
 -10585455.32149  -8096848.10247  21491094.251    21491093.576    21491098.472
       240.000         192.000
  16702505.59049  13323242.22145  24438472.224    24438471.418    24438478.654
       205.000         138.000
  20611075.58449  16065438.36845  24992062.836    24992062.064    24992071.572
       214.000         140.000
   -415040.47549   -315219.11847  20839912.036    20839911.909    20839915.333
       245.000         206.000
 98  7 30  0 13 30.0010000  0  8G14G21G 1G25G15G 8G31G29
  -2934102.05049  -1985580.95945  24555899.219    24555898.905    24555906.283
       210.000         142.000
  19460532.81049  15514152.61846  22442829.945    22442829.462    22442835.292
       225.000         168.000
  10701696.05749   8508019.42747  22104695.789    22104695.278    22104700.049
       239.000         189.000
  -8023831.99149  -6007391.39247  21407635.767    21407635.562    21407639.830
       245.000         201.000
 -10595607.41449  -8104758.79847  21489162.358    21489161.653    21489166.563
       240.000         192.000
  16843056.44249  13432762.30345  24465218.184    24465217.393    24465224.929
       208.000         137.000
  20737027.14949  16163582.26245  25016030.895    25016030.192    25016039.515
       213.000         140.000
   -341156.00949   -257646.81347  20853971.761    20853971.646    20853975.098
       245.000         206.000
 98  7 30  0 14  0.0010000  0  8G14G21G 1G25G15G 8G31G29
  -2968450.60849  -2012345.96145  24549362.929    24549362.560    24549369.933
       212.000         144.000
  19563778.80049  15594604.00446  22462477.081    22462476.511    22462482.437
       224.000         169.000
  10816210.90649   8597251.75147  22126487.278    22126486.752    22126491.544
       239.000         189.000
  -8026180.90549  -6009221.68247  21407188.742    21407188.542    21407192.754
       246.000         201.000
 -10605244.95849  -8112268.55047  21487328.387    21487327.703    21487332.600
       241.000         193.000
  16983932.75249  13542535.98645  24492026.195    24492025.343    24492032.805
       209.000         138.000
  20863017.44149  16261756.32845  25040006.030    25040005.355    25040014.657
       209.000         136.000
   -267034.05549   -199889.44747  20868076.660    20868076.551    20868080.045
       245.000         206.000
 98  7 30  0 14 30.0010000  0  8G14G21G 1G25G15G 8G31G29
  -3002832.14649  -2039136.67345  24542820.213    24542819.859    24542827.288
       212.000         143.000
  19667301.95249  15675271.37046  22482176.823    22482176.293    22482182.365
       225.000         168.000
  10930894.91549   8686615.89647  22148310.898    22148310.384    22148315.249
       239.000         188.000
  -8028063.24349  -6010688.40847  21406830.532    21406830.350    21406834.519
       246.000         202.000
 -10614369.65549  -8119378.67547  21485592.031    21485591.345    21485596.206
       241.000         193.000
  17125123.96249  13652555.05545  24518894.028    24518893.173    24518900.690
       206.000         138.000
  20989032.62849  16359949.76345  25063985.867    25063985.205    25063994.628
       208.000         134.000
   -192667.56149   -141941.52947  20882228.127    20882228.024    20882231.546
       245.000         206.000
 98  7 30  0 15  0.0010000  0  8G14G21G 1G25G15G 8G31G29
  -3037249.38949  -2065955.19045  24536270.650    24536270.474    24536277.789
       211.000         143.000
  19771112.09049  15756162.34246  22501931.235    22501930.738    22501936.861
       226.000         169.000
  11045742.28249   8776107.33347  22170165.636    22170165.124    22170170.030
       238.000         188.000
  -8029469.38749  -6011784.07447  21406562.930    21406562.715    21406566.869
       246.000         202.000
 -10622980.24649  -8126088.20447  21483953.525    21483952.849    21483957.678
       241.000         193.000
  17266625.55449  13762815.97945  24545820.855    24545820.112    24545827.666
       211.000         137.000
  21115074.31449  16458163.90244  25087971.074    25087970.349    25087979.556
       207.000         131.000
   -118047.02149    -83795.66047  20896427.927    20896427.844    20896431.395
       245.000         205.000
 98  7 30  0 15 30.0010000  0  8G14G21G 1G25G15G 8G31G29
  -3071703.46449  -2092802.43545  24529714.199    24529713.882    24529721.317
       212.000         142.000
  19875210.03249  15837277.58646  22521740.481    22521739.994    22521746.107
       224.000         168.000
  11160719.62449   8865700.03346  22192045.042    22192044.517    22192049.552
       236.000         187.000
  -8030395.29749  -6012505.53147  21406386.643    21406386.477    21406390.585
       246.000         202.000
 -10631072.65949  -8132393.95547  21482413.569    21482412.885    21482417.709
       241.000         194.000
  17408425.53149  13873309.39245  24572804.477    24572803.861    24572811.494
       204.000         137.000
  21241145.89149  16556401.29244  25111961.747    25111961.002    25111970.435
       205.000         130.000
    -43170.80049    -25450.55747  20910676.384    20910676.300    20910679.866
       245.000         205.000
 98  7 30  0 16  0.0010000  0  8G14G21G 1G25G15G 8G31G29
  -3106195.29849  -2119679.09045  24523150.596    24523150.187    24523157.550
       213.000         142.000
  19979595.11349  15918616.55546  22541604.413    22541603.951    22541609.953
       226.000         168.000
  11275788.74549   8955364.25946  22213941.892    22213941.388    22213946.484
       236.000         186.000
  -8030846.33049  -6012856.95747  21406300.745    21406300.597    21406304.677
       246.000         202.000
 -10638651.29649  -8138299.36247  21480971.386    21480970.713    21480975.529
       241.000         194.000
  17550493.37149  13984011.52645  24599839.106    24599838.366    24599845.885
       208.000         137.000
  21367220.30049  16654640.93744  25135952.835    25135952.202    25135961.833
       205.000         130.000
     31958.94149     33092.09647  20924973.116    20924973.042    20924976.561
       245.000         205.000
 98  7 30  0 16 30.0010000  0  8G14G21G 1G25G15G 8G31G29
  -3140706.83949  -2146571.09545  24516583.074    24516582.703    24516589.916
       211.000         142.000
  20084277.04749  16000186.83346  22561525.009    22561524.431    22561530.210
       225.000         168.000
  11390987.98049   9045129.87246  22235863.539    22235863.023    22235868.164
       236.000         186.000
  -8030806.50649  -6012825.89447  21406308.261    21406308.171    21406312.209
       247.000         202.000
 -10645702.50249  -8143793.78547  21479629.613    21479628.942    21479633.747
       242.000         194.000
  17692833.97549  14094926.22245  24626925.647    24626925.004    24626932.344
       204.000         137.000
  21493295.61849  16752881.26144  25159944.470    25159943.883    25159953.739
       210.000         131.000
    107349.61549     91838.07547  20939319.461    20939319.381    20939322.894
       244.000         205.000
 98  7 30  0 17  0.0010000  0  8G14G21G 1G25G15G 8G31G29
  -3175227.96849  -2173470.59145  24510013.715    24510013.391    24510020.639
       213.000         142.000
  20189239.59449  16081975.76746  22581498.842    22581498.265    22581503.951
       224.000         168.000
  11506319.16249   9134998.29646  22257810.384    22257809.869    22257814.988
       236.000         185.000
  -8030282.14549  -6012417.27147  21406408.136    21406407.992    21406411.998
       247.000         203.000
 -10652230.54649  -8148880.55147  21478387.383    21478386.652    21478391.476
       241.000         194.000
  17835438.59049  14206046.64245  24654062.492    24654061.917    24654069.077
       207.000         136.000
  21619366.35649  16851118.00645  25183935.334    25183934.604    25183944.156
       210.000         132.000
    182982.36049    150772.67547  20953711.939    20953711.837    20953715.355
       244.000         205.000
 98  7 30  0 17 30.0010000  0  8G14G21G 1G25G15G 8G31G29
  -3209770.76749  -2200386.96545  24503440.349    24503440.041    24503447.292
       212.000         141.000
  20294459.98049  16163965.63646  22601521.618    22601521.023    22601526.661
       225.000         167.000
  11621770.69049   9224960.50446  22279780.219    22279779.679    22279784.744
       236.000         185.000
  -8029278.86949  -6011635.46447  21406599.092    21406598.930    21406602.873
       247.000         203.000
 -10658239.07849  -8153562.50447  21477243.989    21477243.284    21477248.083
       241.000         194.000
  17978306.52549  14317372.24745  24681249.431    24681248.917    24681255.993
       207.000         136.000
  21745421.44049  16949342.56445  25207922.943    25207922.388    25207931.708
       210.000         133.000
    258851.28849    209891.31947  20968149.308    20968149.202    20968152.735
       244.000         205.000
 98  7 30  0 18  0.0010000  0  7G14G21G 1G25G15G31G29
  -3244320.53549  -2227308.73945  24496865.562    24496865.303    24496872.619
       213.000         141.000
  20399931.03549  16246150.83446  22621591.975    22621591.468    22621597.190
       224.000         166.000
  11737373.64949   9315040.69946  22301778.726    22301778.200    22301783.220
       236.000         185.000
  -8027784.92249  -6010471.32347  21406883.350    21406883.173    21406887.148
       247.000         203.000
 -10663718.71849  -8157832.33747  21476201.214    21476200.536    21476205.307
       242.000         194.000
  21871466.91049  17047559.63145  25231908.751    25231908.252    25231917.495
       209.000         134.000
    334977.55749    269210.48647  20982635.638    20982635.534    20982639.079
       245.000         205.000
 98  7 30  0 18 30.0010000  0  7G14G21G 1G25G15G31G29
  -3278880.83749  -2254238.78545  24490288.979    24490288.666    24490295.943
       213.000         141.000
  20505637.83149  16328519.69546  22641707.179    22641706.762    22641712.601
       224.000         166.000
  11853134.59349   9405244.00346  22323807.353    22323806.820    22323811.833
       235.000         184.000
  -8025802.82749  -6008926.81047  21407260.480    21407260.332    21407264.292
       247.000         203.000
 -10668670.12249  -8161690.55547  21475258.994    21475258.268    21475263.088
       241.000         194.000
  21997499.08549  17145766.33345  25255892.148    25255891.900    25255901.033
       210.000         135.000
    411359.05849    328728.53747  20997170.554    20997170.441    20997174.029
       244.000         205.000
 98  7 30  0 19  0.0010000  0  7G14G21G 1G25G15G31G29
  -3313455.75549  -2281180.15645  24483709.457    24483709.251    24483716.363
       214.000         142.000
  20611586.05149  16411076.72846  22661868.531    22661868.055    22661873.967
       225.000         166.000
  11969027.61549   9495550.22746  22345861.068    22345860.522    22345865.496
       234.000         184.000
  -8023337.77249  -6007005.95747  21407729.545    21407729.367    21407733.326
       247.000         203.000
 -10673088.60549  -8165133.51047  21474418.104    21474417.410    21474422.273
       240.000         194.000
  22123516.53449  17243961.55845  25279872.564    25279872.449    25279881.749
       210.000         136.000
    488011.17149    388457.44947  21011756.932    21011756.824    21011760.457
       244.000         205.000
 98  7 30  0 19 30.0010000  0  7G14G21G 1G25G15G31G29
  -3348058.50349  -2308143.25445  24477124.736    24477124.440    24477131.474
       215.000         143.000
  20717795.14049  16493836.99546  22682079.578    22682079.013    22682084.922
       225.000         166.000
  12085037.28449   9585947.34346  22367936.981    22367936.440    22367941.442
       234.000         183.000
  -8020395.58049  -6004713.31747  21408289.422    21408289.250    21408293.204
       247.000         203.000
 -10676968.54849  -8168156.82947  21473679.752    21473679.041    21473683.927
       242.000         194.000
  22249522.97649  17342148.20445  25303850.780    25303850.399    25303860.145
       210.000         135.000
    564946.68549    448407.19047  21026397.281    21026397.178    21026400.827
       245.000         205.000
 98  7 30  0 20  0.0010000  0  7G14G21G 1G25G15G31G29
  -3382691.89449  -2335130.21545  24470534.248    24470533.942    24470540.907
       216.000         145.000
  20824280.48049  16576812.54446  22702343.086    22702342.575    22702348.494
       226.000         167.000
  12201159.16449   9676431.88846  22390034.166    22390033.672    22390038.746
       232.000         182.000
  -8016983.80849  -6002054.76247  21408938.611    21408938.460    21408942.416
       247.000         203.000
 -10680308.70549  -8170759.53547  21473044.143    21473043.401    21473048.309
       241.000         195.000
  22375522.75849  17440329.68645  25327828.037    25327827.389    25327837.292
       210.000         136.000
    642153.41849    508568.27047  21041089.235    21041089.137    21041092.784
       245.000         205.000
 98  7 30  0 20 30.0010000  0  6G14G21G 1G25G15G29
  -3417368.95049  -2362151.21545  24463935.566    24463935.269    24463941.989
       217.000         146.000
  20931056.94849  16660014.93246  22722662.066    22722661.549    22722667.418
       226.000         167.000
  12317367.20149   9766983.57146  22412147.794    22412147.313    22412152.446
       233.000         181.000
  -8013112.85549  -5999038.41147  21409675.256    21409675.080    21409678.974
       247.000         203.000
 -10683112.38849  -8172944.21247  21472510.595    21472509.871    21472514.746
       241.000         195.000
    719610.29249    568924.26247  21055828.813    21055828.733    21055832.343
       245.000         205.000
 98  7 30  0 21  0.0010000  0  6G14G21G 1G25G15G29
  -3452083.95749  -2389201.76145  24457329.541    24457329.234    24457335.732
       217.000         145.000
  21038133.39349  16743451.07146  22743038.097    22743037.542    22743043.386
       226.000         167.000
  12433665.60649   9857605.68146  22434278.733    22434278.172    22434283.333
       232.000         181.000
  -8008767.74649  -5995652.57747  21410502.081    21410501.908    21410505.778
       247.000         203.000
 -10685371.07349  -8174704.21347  21472080.778    21472080.038    21472084.926
       241.000         195.000
    797310.82049    629470.11647  21070614.729    21070614.637    21070618.243
       244.000         205.000
 98  7 30  0 21 30.0010000  0  6G14G21G 1G25G15G29
  -3486831.78749  -2416277.88145  24450717.162    24450716.771    24450723.368
       216.000         146.000
  21145506.80849  16827118.62246  22763470.614    22763470.018    22763475.881
       227.000         167.000
  12550061.44149   9948303.70446  22456428.099    22456427.559    22456432.741
       232.000         181.000
  -8003936.49449  -5991887.93347  21411421.368    21411421.202    21411425.091
       247.000         203.000
 -10687082.30249  -8176037.62947  21471755.099    21471754.374    21471759.283
       241.000         196.000
    875220.28449    690178.78247  21085440.437    21085440.333    21085443.924
       245.000         205.000
 98  7 30  0 22  0.0010000  0  6G14G21G 1G25G15G29
  -3521598.78249  -2443368.95945  24444101.140    24444100.671    24444107.155
       217.000         144.000
  21253162.41249  16911006.04546  22783956.856    22783956.185    22783962.103
       225.000         167.000
  12666575.80649  10039094.09346  22478600.056    22478599.539    22478604.730
       233.000         181.000
  -7998611.17749  -5987738.30447  21412434.673    21412434.520    21412438.421
       246.000         203.000
 -10688246.11949  -8176944.47947  21471533.612    21471532.897    21471537.824
       241.000         196.000
    953318.21349    751034.29847  21100301.986    21100301.915    21100305.503
       245.000         205.000
 98  7 30  0 22 30.0010000  0  6G14G21G 1G25G15G29
  -3556381.62549  -2470472.35845  24437482.097    24437481.683    24437488.058
       217.000         144.000
  21361078.19649  16995096.22046  22804492.562    22804491.959    22804497.921
       225.000         167.000
  12783206.07349  10129974.78746  22500794.069    22500793.535    22500798.791
       232.000         181.000
  -7992792.47849  -5983204.22047  21413541.929    21413541.773    21413545.680
       247.000         203.000
 -10688867.20249  -8177428.42447  21471415.376    21471414.659    21471419.613
       240.000         196.000
   1031604.61349    812036.67847  21115199.421    21115199.302    21115202.926
       245.000         205.000
 98  7 30  0 23  0.0010000  0  6G14G21G 1G25G15G29
  -3591178.18249  -2497586.43245  24430860.411    24430860.057    24430866.387
       215.000         142.000
  21469245.16649  17079382.11446  22825076.104    22825075.579    22825081.564
       226.000         167.000
  12899970.48349  10220960.01146  22523013.670    22523013.112    22523018.427
       232.000         181.000
  -7986468.39049  -5978276.32847  21414745.383    21414745.210    21414749.110
       246.000         204.000
 -10688940.50449  -8177485.52847  21471401.359    21471400.669    21471405.620
       241.000         196.000
   1110088.53749    873192.97447  21130134.397    21130134.292    21130137.937
       244.000         205.000
 98  7 30  0 23 30.0010000  0  6G14G21G 1G25G15G29
  -3625980.24449  -2524704.84545  24424237.699    24424237.433    24424243.562
       214.000         141.000
  21577670.08549  17163869.01046  22845708.781    22845708.255    22845714.285
       226.000         167.000
  13016880.88249  10312059.00146  22545260.958    22545260.411    22545265.785
       231.000         180.000
  -7979636.85149  -5972953.02047  21416045.367    21416045.201    21416049.047
       246.000         204.000
 -10688458.19849  -8177109.69047  21471493.141    21471492.415    21471497.399
       241.000         197.000
   1188791.32449    934519.80847  21145111.033    21145110.924    21145114.634
       244.000         205.000
 98  7 30  0 24  0.0010000  0  6G14G21G 1G25G15G29
  -3660791.31949  -2551830.27845  24417613.108    24417612.938    24417619.157
       213.000         141.000
  21686338.14049  17248545.36546  22866387.681    22866387.120    22866393.220
       225.000         167.000
  13133929.75149  10403265.88046  22567534.596    22567534.041    22567539.461
       230.000         180.000
  -7972311.63249  -5967245.03347  21417439.288    21417439.106    21417442.967
       246.000         204.000
 -10687425.19949  -8176304.74147  21471689.696    21471689.009    21471693.971
       241.000         197.000
   1267741.78949    996039.63847  21160134.799    21160134.724    21160138.443
       244.000         206.000
 98  7 30  0 24 30.0010000  0  6G14G21G 1G25G15G29
  -3695599.92149  -2578953.79045  24410989.077    24410988.904    24410995.233
       212.000         140.000
  21795271.42349  17333428.38946  22887117.109    22887116.489    22887122.495
       225.000         166.000
  13251102.66149  10494569.41046  22589831.914    22589831.345    22589836.752
       230.000         179.000
  -7964476.54149  -5961139.73947  21418930.159    21418929.993    21418933.904
       246.000         204.000
 -10685824.71149  -8175057.59047  21471994.262    21471993.568    21471998.563
       241.000         197.000
   1346969.81349   1057775.75847  21175211.413    21175211.316    21175215.079
       245.000         206.000
 98  7 30  0 25  0.0010000  0  6G14G21G 1G25G15G29
  -3730421.85249  -2606087.65545  24404362.475    24404362.322    24404368.896
       212.000         140.000
  21904481.21149  17418526.86146  22907899.037    22907898.452    22907904.490
       225.000         165.000
  13368382.73949  10585956.45046  22612149.592    22612149.035    22612154.402
       229.000         179.000
  -7956136.81349  -5954641.22447  21420517.098    21420516.935    21420520.897
       246.000         204.000
 -10683661.51649  -8173371.97047  21472405.873    21472405.193    21472410.236
       242.000         198.000
   1426455.50749   1119712.65847  21190337.018    21190336.915    21190340.722
       245.000         206.000
 98  7 30  0 25 30.0010000  0  6G14G21G 1G25G15G29
  -3765266.09349  -2633238.94045  24397731.676    24397731.571    24397738.208
       211.000         140.000
  22013966.67949  17503840.14946  22928733.445    22928732.878    22928738.939
       224.000         164.000
  13485747.56249  10677409.53146  22634483.378    22634482.833    22634488.190
       230.000         178.000
  -7947305.38249  -5947759.56647  21422197.624    21422197.461    21422201.426
       245.000         204.000
 -10680946.11549  -8171256.05747  21472922.603    21472921.905    21472926.933
       242.000         198.000
   1506183.77549   1181838.57547  21205508.841    21205508.772    21205512.539
       245.000         206.000
 98  7 30  0 26  0.0010000  0  6G14G21G 1G25G15G29
  -3800123.10149  -2660400.15545  24391098.561    24391098.374    24391105.166
       214.000         141.000
  22123745.51249  17589382.04746  22949623.776    22949623.157    22949629.200
       225.000         164.000
  13603197.37449  10768928.82546  22656833.408    22656832.891    22656838.186
       230.000         178.000
  -7937972.80349  -5940487.39847  21423973.557    21423973.402    21423977.379
       245.000         204.000
 -10677670.18449  -8168703.37247  21473546.031    21473545.304    21473550.316
       242.000         198.000
   1586151.14249   1244150.79947  21220726.190    21220726.117    21220729.809
       246.000         206.000
 98  7 30  0 26 30.0010000  0  6G14G21G 1G25G15G29
  -3834997.07949  -2687574.61145  24384462.214    24384462.028    24384468.857
       215.000         144.000
  22233835.20149  17675166.14346  22970573.203    22970572.563    22970578.503
       226.000         164.000
  13720737.38349  10860518.40646  22679200.545    22679200.007    22679205.281
       229.000         178.000
  -7928131.88949  -5932819.12747  21425846.221    21425846.046    21425850.056
       245.000         204.000
 -10673834.89749  -8165714.82247  21474275.893    21474275.169    21474280.142
       242.000         198.000
   1666335.10749   1306631.80447  21235984.731    21235984.624    21235988.322
       245.000         206.000
 98  7 30  0 27  0.0010000  0  6G14G21G 1G25G15G29
  -3869874.69949  -2714751.90645  24377825.218    24377824.833    24377831.962
       216.000         145.000
  22344243.71649  17761198.67346  22991583.314    22991582.708    22991588.510
       224.000         164.000
  13838408.31749  10952210.01346  22701592.610    22701592.095    22701597.325
       229.000         178.000
  -7917762.31149  -5924738.91347  21427819.509    21427819.329    21427823.320
       246.000         204.000
 -10669425.69249  -8162279.05947  21475114.934    21475114.208    21475119.203
       242.000         199.000
   1746746.99249   1369290.41247  21251286.562    21251286.431    21251290.160
       244.000         205.000
 98  7 30  0 27 30.0010000  0  6G14G21G 1G25G15G29
  -3904757.70149  -2741933.38545  24371187.165    24371186.868    24371193.848
       217.000         146.000
  22454942.27349  17847457.21746  23012648.568    23012647.956    23012653.843
       224.000         164.000
  13956211.90549  11044004.98646  22724009.886    22724009.406    22724014.670
       229.000         179.000
  -7906872.08949  -5916252.99847  21429891.836    21429891.655    21429895.623
       245.000         204.000
 -10664450.16649  -8158402.01347  21476061.723    21476061.012    21476066.027
       242.000         199.000
   1827388.41349   1432127.87847  21266632.064    21266631.977    21266635.723
       244.000         205.000
 98  7 30  0 28  0.0010000  0  6G14G21G 1G25G15G29
  -3939649.70449  -2769121.89645  24364547.431    24364547.185    24364553.934
       216.000         147.000
  22565905.88849  17933922.30746  23033764.294    23033763.717    23033769.616
       225.000         163.000
  14074134.73249  11135892.85546  22746449.926    22746449.410    22746454.699
       230.000         179.000
  -7895470.02349  -5907368.25347  21432061.554    21432061.363    21432065.317
       245.000         203.000
 -10658909.16949  -8154084.34547  21477116.152    21477115.452    21477120.427
       242.000         199.000
   1908241.18849   1495130.03447  21282017.823    21282017.716    21282021.468
       245.000         205.000
 98  7 30  0 28 30.0010000  0  6G14G21G 1G25G15G29
  -3974563.36349  -2796327.26345  24357903.442    24357903.274    24357910.011
       216.000         148.000
  22677109.41249  18020574.34145  23054925.615    23054925.097    23054930.907
       225.000         162.000
  14192163.15049  11227863.01946  22768910.062    22768909.522    22768914.850
       229.000         179.000
  -7883554.61249  -5898083.48847  21434328.908    21434328.733    21434332.698
       245.000         203.000
 -10652806.63449  -8149329.10747  21478277.455    21478276.708    21478281.661
       243.000         199.000
   1989301.35649   1558293.79847  21297443.035    21297442.927    21297446.654
       244.000         205.000
 98  7 30  0 29  0.0010000  0  6G14G21G 1G25G15G29
  -4009491.25549  -2823543.73545  24351256.896    24351256.716    24351263.272
       217.000         148.000
  22788539.41149                  23076130.092    23076129.578    23076135.285
       225.000         162.000
  14310290.40849  11319910.19746  22791388.969    22791388.430    22791393.857
       229.000         179.000
  -7871124.27149  -5888397.48047  21436694.273    21436694.115    21436698.097
       244.000         203.000
 -10646131.31349  -8144127.54747  21479547.720    21479547.009    21479551.941
       243.000         200.000
   2070574.88649   1621623.82147  21312908.895    21312908.780    21312912.485
       245.000         205.000
 98  7 30  0 29 30.0010000  0  6G14G21G 1G25G15G29
  -4044440.53249  -2850776.86845  24344606.360    24344606.030    24344612.503
       215.000         149.000
  22900199.37049  18194410.52745  23097378.322    23097377.778    23097383.558
       222.000         161.000
  14428484.34349  11412009.33146  22813880.517    22813879.989    22813885.440
       229.000         179.000
  -7858200.47449  -5878326.96247  21439153.515    21439153.343    21439157.371
       244.000         203.000
 -10638888.73649  -8138483.97047  21480925.937    21480925.215    21480930.137
       242.000         200.000
   2152039.96549   1685103.09347  21328411.193    21328411.098    21328414.791
       245.000         205.000
 98  7 30  0 30  0.0020000  0  6G14G21G 1G25G15G29
  -4079394.03349  -2878013.26945  24337954.954    24337954.585    24337960.879
       215.000         149.000
  23012110.96949  18281614.29945  23118674.494    23118673.945    23118679.662
       224.000         160.000
  14546746.50149  11504161.62946  22836385.036    22836384.520    22836389.964
       229.000         178.000
  -7844775.56849  -5867865.96847  21441708.180    21441707.994    21441712.040
       244.000         203.000
 -10631067.67249  -8132389.62547  21482414.238    21482413.534    21482418.457
       242.000         200.000
   2233709.29949   1748741.51947  21343952.392    21343952.269    21343955.967
       245.000         205.000
 98  7 30  0 30 30.0020000  0  6G14G21G 1G25G15G29
  -4114336.46949  -2905241.05245  24331305.662    24331305.277    24331311.559
       216.000         149.000
  23124293.78749  18369029.42445  23140022.249    23140021.646    23140027.354
       222.000         160.000
  14665084.93149  11596373.35746  22858904.092    22858903.580    22858909.056
       229.000         178.000
  -7830859.24849  -5857022.05247  21444356.367    21444356.171    21444360.205
       244.000         203.000
 -10622667.31149  -8125843.88047  21484012.740    21484012.038    21484016.967
       243.000         200.000
   2315597.57249   1812550.54747  21359535.241    21359535.122    21359538.799
       245.000         205.000
 98  7 30  0 31  0.0020000  0  6G14G21G 1G25G15G29
  -4149263.87749  -2932457.13045  24324659.086    24324658.570    24324665.016
       213.000         147.000
  23236775.49149  18456677.42845  23161426.830    23161426.248    23161432.052
       220.000         158.000
  14783505.53749  11688649.10846  22881438.824    22881438.270    22881443.767
       228.000         177.000
  -7816470.65649  -5845810.13947  21447094.417    21447094.226    21447098.252
       244.000         203.000
 -10613686.45949  -8118845.80347  21485721.741    21485721.045    21485725.986
       243.000         200.000
   2397695.17449   1876522.69047  21375157.923    21375157.816    21375161.481
       245.000         205.000
 98  7 30  0 31 30.0020000  0  6G14G21G 1G25G15G29
  -4184167.82249  -2959654.92945  24318016.923    24318016.498    24318022.887
       214.000         147.000
  23349564.93549  18544565.22845  23182889.968    23182889.410    23182895.333
       221.000         158.000
  14902014.57749  11780993.77646  22903990.330    22903989.838    22903995.301
       229.000         177.000
  -7801607.02349  -5834228.06047  21449922.814    21449922.628    21449926.662
       244.000         203.000
 -10604120.78449  -8111392.02647  21487541.993    21487541.305    21487546.260
       243.000         200.000
   2480006.15849   1940661.11147  21390821.218    21390821.093    21390824.783
       245.000         205.000
 98  7 30  0 32  0.0020000  0  6G14G21G 1G25G15G29
  -4219049.00749  -2986834.98245  24311379.199    24311378.862    24311385.159
       213.000         146.000
  23462640.40549  18632675.93145  23204407.432    23204406.954    23204413.022
       220.000         157.000
  15020618.55149  11873412.43246  22926560.029    22926559.523    22926564.869
       230.000         177.000
  -7786260.90349  -5822270.02247  21452842.991    21452842.836    21452846.913
       244.000         203.000
 -10593974.25449  -8103485.62747  21489472.812    21489472.098    21489477.103
       243.000         200.000
   2562533.74449   2004968.31347  21406525.637    21406525.561    21406529.250
       245.000         205.000
 98  7 30  0 32 30.0020000  0  6G14G21G 1G25G15G29
  -4253930.69749  -3014015.44845  24304741.396    24304741.169    24304747.395
       211.000         146.000
  23575997.81749  18721006.33545  23225978.527    23225978.100    23225984.350
       219.000         157.000
  15139306.12749  11965896.22446  22949145.652    22949145.067    22949150.304
       229.000         177.000
  -7770426.20349  -5809931.27247  21455856.240    21455856.080    21455860.153
       244.000         204.000
 -10583249.88049  -8095128.96247  21491513.584    21491512.905    21491517.869
       242.000         200.000
   2645257.25049   2069428.17947  21422267.457    21422267.373    21422271.063
       245.000         205.000
 98  7 30  0 33  0.0020000  0  6G14G21G 1G25G15G29
  -4288819.46149  -3041201.42145  24298102.163    24298101.945    24298108.223
       213.000         146.000
  23689632.75149  18809552.95845  23247602.454    23247602.079    23247608.545
       219.000         155.000
  15258076.24749  12058444.34546  22971746.821    22971746.281    22971751.562
       229.000         177.000
  -7754064.71749  -5797182.04047  21458969.691    21458969.545    21458973.611
       244.000         204.000
 -10571933.46849  -8086310.97247  21493667.048    21493666.314    21493671.277
       242.000         200.000
   2728178.63149   2134042.23447  21438046.875    21438046.759    21438050.466
       244.000         204.000
 98  7 30  0 33 30.0020000  0  6G14G21G 1G25G15G29
  -4323730.73849  -3068404.92945  24291458.660    24291458.363    24291464.900
       213.000         146.000
  23803512.61449  18898290.45545  23269273.135    23269272.757    23269279.188
       220.000         155.000
  15376923.64649  12151052.67546  22994362.682    22994362.154    22994367.495
       229.000         177.000
  -7737163.64949  -5784012.34947  21462185.840    21462185.688    21462189.780
       244.000         204.000
 -10560034.67149  -8077039.17047  21495931.252    21495930.567    21495935.541
       243.000         200.000
   2811295.96049   2198808.98347  21453863.553    21453863.439    21453867.199
       245.000         204.000
 98  7 30  0 34  0.0020000  0  6G14G21G 1G25G15G29
  -4358656.56849  -3095619.79245  24284812.325    24284812.025    24284818.620
       214.000         147.000
  23917660.50149  18987236.78345  23290994.866    23290994.400    23291000.802
       220.000         155.000
  15495860.09649  12243730.38446  23016995.539    23016995.016    23017000.392
       228.000         177.000
  -7719696.76849  -5770401.76947  21465509.650    21465509.487    21465513.612
       244.000         204.000
 -10547537.61749  -8067301.19547  21498309.355    21498308.661    21498313.644
       243.000         200.000
   2894622.86249   2263739.02547  21469720.106    21469720.022    21469723.762
       245.000         204.000
 98  7 30  0 34 30.0020000  0  6G14G21G 1G25G15G29
  -4393621.19249  -3122864.88145  24278158.635    24278158.480    24278165.003
       216.000         148.000
  24032079.66949  19076394.51445  23312768.212    23312767.837    23312774.055
       218.000         154.000
  15614875.06049  12336469.29346  23039643.452    23039642.887    23039648.254
       228.000         177.000
  -7701687.02349  -5756368.17247  21468936.812    21468936.634    21468940.749
       244.000         205.000
 -10534454.42049  -8057106.48847  21500799.023    21500798.307    21500803.258
       243.000         200.000
   2978140.84849   2328817.97347  21485613.087    21485612.980    21485616.676
       245.000         203.000
 98  7 30  0 35  0.0020000  0  6G14G21G 1G25G15G29
  -4428596.75249  -3150118.50045  24271503.053    24271502.968    24271509.204
       217.000         151.000
  24146781.63049  19165772.58245  23334595.321    23334594.986    23334601.137
       219.000         153.000
  15734001.52049  12429295.07446  23062312.528    23062311.953    23062317.292
       229.000         176.000
  -7683128.95649  -5741907.31347  21472468.253    21472468.090    21472472.190
       244.000         205.000
 -10520773.52049  -8046446.03547  21503402.395    21503401.695    21503406.621
       242.000         200.000
   3061860.60349   2394054.13147  21501544.457    21501544.360    21501548.010
       245.000         203.000
 98  7 30  0 35 30.0020000  0  6G14G21G 1G25G15G29
  -4463564.85449  -3177366.30445  24264848.839    24264848.725    24264854.953
       221.000         152.000
  24261758.05849  19255364.53045  23356474.683    23356474.300    23356480.354
       217.000         153.000
  15853242.64449  12522210.19646  23085003.348    23085002.815    23085008.139
       227.000         176.000
  -7664035.44649  -5727029.22247  21476101.603    21476101.434    21476105.515
       245.000         205.000
 -10506497.45449  -8035321.82047  21506119.076    21506118.354    21506123.251
       243.000         200.000
   3145777.73149   2459444.09047  21517513.388    21517513.295    21517516.914
       245.000         203.000
 98  7 30  0 36  0.0020000  0  6G14G21G 1G25G15G29
  -4498516.81749  -3204601.54645  24258197.750    24258197.540    24258203.800
       219.000         154.000
  24377014.99249  19345175.03945  23378407.328    23378406.906    23378413.084
       217.000         152.000
  15972584.01549  12615203.43846  23107713.253    23107712.763    23107718.094
       229.000         176.000
  -7644424.36049  -5711747.82647  21479833.492    21479833.341    21479837.363
       245.000         205.000
 -10491627.21349  -8023734.61547  21508948.823    21508948.105    21508952.963
       242.000         200.000
   3229887.20149   2524983.92347  21533518.854    21533518.755    21533522.412
       244.000         203.000
 98  7 30  0 36 30.0020000  0  6G14G21G 1G25G15G29
  -4533441.41649  -3231815.46345  24251551.816    24251551.530    24251557.798
       219.000         155.000
  24492535.99749  19435191.34345  23400390.121    23400389.797    23400396.028
       220.000         151.000
  16092027.44349  12708276.20746  23130442.688    23130442.168    23130447.503
       229.000         176.000
  -7624299.81549  -5696066.33847  21483663.013    21483662.850    21483666.898
       245.000         205.000
 -10476156.60549  -8011679.59447  21511892.770    21511892.057    21511896.899
       243.000         200.000
   3314196.77949   2590679.68347  21549562.435    21549562.318    21549565.992
       244.000         202.000
 98  7 30  0 37  0.0020000  0  6G14G21G 1G25G15G29
  -4568334.44349  -3259004.75845  24244911.879    24244911.566    24244917.827
       221.000         156.000
  24608301.66749  19525398.28145  23422419.696    23422419.267    23422425.716
       219.000         152.000
  16211548.73149  12801409.64146  23153186.821    23153186.313    23153191.700
       228.000         176.000
  -7603664.50449  -5679986.85047  21487589.745    21487589.591    21487593.643
       245.000         205.000
 -10460090.37649  -7999160.45547  21514950.056    21514949.331    21514954.127
       242.000         199.000
   3398704.51749   2656529.85747  21565643.685    21565643.576    21565647.256
       244.000         202.000
 98  7 30  0 37 30.0020000  0  6G14G21G 1G25G15G29
  -4603198.62549  -3286171.59745  24238277.484    24238277.239    24238283.308
       222.000         158.000
  24724315.61549  19615798.67945  23444496.594    23444496.133    23444502.595
       219.000         151.000
  16331130.14849  12894589.93046  23175942.433    23175941.939    23175947.317
       228.000         175.000
  -7582520.55749  -5663511.02447  21491613.300    21491613.136    21491617.184
       245.000         206.000
 -10443417.31349  -7986168.45347  21518122.836    21518122.134    21518126.907
       243.000         199.000
   3483427.43249   2722547.69247  21581765.898    21581765.804    21581769.491
       244.000         201.000
 98  7 30  0 38  0.0020000  0  6G14G21G 1G25G15G29
  -4638066.89649  -3313341.61545  24231642.374    24231642.033    24231647.990
       221.000         158.000
  24840581.29349  19706395.22045  23466621.346    23466620.877    23466627.443
       219.000         153.000
  16450752.54249  12987802.14546  23198705.830    23198705.320    23198710.721
       229.000         175.000
  -7560886.07049  -5646652.95847  21495730.167    21495730.026    21495734.087
       245.000         206.000
 -10426149.88449  -7972713.31147  21521408.698    21521407.989    21521412.746
       242.000         199.000
   3568352.34949   2788722.93947  21597926.581    21597926.467    21597930.161
       244.000         201.000
 98  7 30  0 38 30.0020000  0  6G14G21G 1G25G15G29
  -4672941.92049  -3340516.88145  24225005.827    24225005.478    24225011.475
       220.000         158.000
  24957114.46649  19797200.19845  23488797.092    23488796.533    23488803.077
       219.000         153.000
  16570432.04549  13081058.87646  23221480.137    23221479.684    23221484.988
       228.000         174.000
  -7538751.79649  -5629405.44947  21499942.193    21499942.040    21499946.109
       245.000         206.000
 -10408279.77049  -7958788.54847  21524809.245    21524808.545    21524813.329
       242.000         200.000
   3653488.04849   2855062.43447  21614127.389    21614127.291    21614130.989
       244.000         201.000
 98  7 30  0 39  0.0020000  0  6G14G21G 1G25G15G29
  -4707819.46849  -3367694.12545  24218368.606    24218368.333    24218374.369
       219.000         158.000
  25073948.40449  19888239.54045  23511030.100    23511029.473    23511035.882
       220.000         153.000
  16690181.62949  13174370.20446  23244267.836    23244267.359    23244272.634
       229.000         174.000
  -7516102.35149  -5611756.51247  21504252.228    21504252.056    21504256.092
       245.000         206.000
 -10389798.84549  -7944387.83047  21528326.035    21528325.341    21528330.119
       242.000         200.000
   3738832.58449   2921564.66347  21630367.954    21630367.828    21630371.528
       244.000         201.000
 98  7 30  0 39 30.0020000  0  6G14G21G 1G25G15G29
  -4742715.26549  -3394885.57645  24211727.990    24211727.720    24211733.872
       220.000         158.000
  25191064.90949  19979499.08245  23533316.703    23533316.253    23533322.352
       220.000         152.000
  16809997.09049  13267732.87146  23267068.002    23267067.465    23267072.753
       228.000         173.000
  -7492946.87149  -5593713.26047  21508658.562    21508658.406    21508662.373
       246.000         206.000
 -10370718.70849  -7929520.18447  21531956.825    21531956.137    21531960.924
       242.000         200.000
   3824367.54749   2988215.27547  21646644.672    21646644.560    21646648.304
       243.000         201.000
 98  7 30  0 40  0.0020000  0  6G14G21G 1G25G15G29
  -4777611.56249  -3422077.41345  24205087.341    24205086.957    24205093.269
       217.000         157.000
  25308482.29749  20070993.06845  23555660.501    23555660.166    23555666.257
       220.000         153.000
  16929890.81349  13361156.51946  23289882.963    23289882.450    23289887.737
       227.000         173.000
  -7469261.34249  -5575256.98747  21513165.786    21513165.615    21513169.553
       246.000         207.000
 -10351030.94749  -7914179.07347  21535703.291    21535702.613    21535707.374
       242.000         200.000
   3910095.17349   3055016.01047  21662958.138    21662958.036    21662961.797
       244.000         201.000
 98  7 30  0 40 30.0020000  0  6G14G21G 1G25G15G29
  -4812490.87649  -3449256.01845  24198449.886    24198449.542    24198455.892
       220.000         157.000
  25426185.58149  20162709.80745  23578058.821    23578058.440    23578064.453
       218.000         152.000
  17049866.54349  13454644.07146  23312713.551    23312713.084    23312718.379
       228.000         173.000
  -7445041.84949  -5556384.64047  21517774.602    21517774.425    21517778.373
       246.000         207.000
 -10330730.62549  -7898360.63847  21539566.308    21539565.609    21539570.372
       243.000         200.000
   3996004.41349   3121958.26347  21679306.149    21679306.039    21679309.792
       244.000         201.000
 98  7 30  0 41  0.0020000  0  6G14G21G 1G25G15G29
  -4847344.74149  -3476414.78945  24191817.394    24191817.094    24191823.293
       220.000         158.000
  25544141.17849  20254623.18445  23600505.182    23600504.711    23600510.687
       219.000         152.000
  17169909.49249  13548184.00346  23335557.030    23335556.540    23335561.851
       227.000         173.000
  -7420287.66549  -5537095.64847  21522485.163    21522484.974    21522488.900
       246.000         207.000
 -10309824.72049  -7882070.32547  21543544.577    21543543.885    21543548.638
       242.000         200.000
   4082073.17849   3189024.81447  21695684.554    21695684.440    21695688.168
       244.000         201.000
 98  7 30  0 41 30.0020000  0  6G14G21G 1G25G15G29
  -4882169.38749  -3503550.79545  24185190.549    24185190.191    24185196.369
       220.000         159.000
  25662333.05749  20346720.65945  23622996.463    23622995.910    23623001.954
       220.000         152.000
  17290014.98049  13641772.66046  23358412.393    23358411.858    23358417.235
       227.000         172.000
  -7394992.71749  -5517385.28447  21527298.596    21527298.441    21527302.364
       246.000         208.000
 -10288308.56949  -7865304.49047  21547638.947    21547638.241    21547643.019
       242.000         200.000
   4168307.04049   3256220.01447  21712094.360    21712094.230    21712097.917
       244.000         201.000
 98  7 30  0 42  0.0020000  0  6G14G21G 1G25G15G29
  -4916959.55349  -3530659.93845  24178570.114    24178569.814    24178576.051
       221.000         160.000
  25780779.64349  20439016.63145  23645536.129    23645535.646    23645541.548
       221.000         152.000
  17410194.02149  13735418.61446  23381281.736    23381281.186    23381286.643
       228.000         172.000
  -7369145.01449  -5497244.20147  21532217.242    21532217.066    21532221.000
       247.000         208.000
 -10266173.25549  -7848056.19247  21551851.120    21551850.414    21551855.240
       243.000         200.000
   4254717.68049   3323552.96847  21728537.761    21728537.666    21728541.313
       243.000         201.000
 98  7 30  0 42 30.0020000  0  6G14G21G 1G25G15G29
  -4951727.75849  -3557751.96845  24171953.827    24171953.645    24171959.818
       224.000         161.000
  25899467.44049  20531500.55145  23668121.675    23668121.101    23668127.128
       220.000         153.000
  17530444.16549  13829120.00146  23404164.618    23404164.144    23404169.508
       229.000         171.000
  -7342756.83849  -5476681.97647  21537238.779    21537238.580    21537242.506
       246.000         208.000
 -10243426.83049  -7830331.70547  21556179.598    21556178.888    21556183.744
       242.000         200.000
   4341307.43649   3391025.49647  21745015.250    21745015.129    21745018.781
       243.000         201.000
 98  7 30  0 43  0.0020000  0  6G14G21G 1G25G15G29
  -4986474.90749  -3584827.58045  24165341.758    24165341.492    24165347.627
       223.000         162.000
  26018424.95949  20624194.63445  23690758.512    23690757.949    23690764.179
       219.000         153.000
  17650765.84649  13922877.11746  23427061.184    23427060.653    23427065.976
       228.000         171.000
  -7315821.73449  -5455693.56647  21542364.348    21542364.162    21542368.092
       246.000         207.000
 -10220062.47049  -7812125.70847  21560625.651    21560624.940    21560629.850
       242.000         200.000
   4428097.59649   3458654.17747  21761530.821    21761530.716    21761534.405
       243.000         200.000
 98  7 30  0 43 30.0020000  0  6G14G21G 1G25G15G29
  -5021218.01149  -3611900.05445  24158730.443    24158730.089    24158736.224
       224.000         162.000
  26137682.70949  20717122.67945  23713452.490    23713451.989    23713458.287
       219.000         154.000
  17771156.08549  14016687.65246  23449970.726    23449970.174    23449975.451
       228.000         170.000
  -7288349.44849  -5434286.57547  21547592.140    21547591.972    21547595.852
       247.000         208.000
 -10196079.65749  -7793437.80347  21565189.407    21565188.721    21565193.657
       242.000         201.000
   4515100.25049   3526448.44547  21778086.813    21778086.694    21778090.479
       243.000         200.000
 98  7 30  0 44  0.0020000  0  6G14G21G 1G25G15G29
  -5055954.54549  -3638967.40346  24152120.300    24152119.946    24152125.923
       225.000         163.000
  26257251.56449  20810293.13145  23736205.699    23736205.147    23736211.621
       219.000         155.000
  17891615.95549  14110552.45346  23472893.424    23472892.855    23472898.136
       226.000         168.000
  -7260355.49149  -5412473.08447  21552919.211    21552919.045    21552922.896
       247.000         208.000
 -10171483.44149  -7774271.91947  21569869.922    21569869.210    21569874.184
       243.000         201.000
   4602302.16549   3594397.97847  21794680.791    21794680.696    21794684.462
       244.000         201.000
 98  7 30  0 44 30.0020000  0  6G14G21G 1G25G15G29
  -5090675.15449  -3666022.34945  24145513.120    24145512.779    24145518.722
       225.000         162.000
  26377116.48449  20903694.27645  23759015.269    23759014.696    23759021.369
       219.000         155.000
  18012133.11749  14204461.88146  23495826.910    23495826.388    23495831.747
       225.000         167.000
  -7231852.86949  -5390263.23247  21558343.113    21558342.940    21558346.750
       247.000         208.000
 -10146274.99949  -7754628.97647  21574666.909    21574666.229    21574671.193
       243.000         201.000
   4689678.55849   3662483.47347  21811308.023    21811307.936    21811311.693
       244.000         201.000
 98  7 30  0 45  0.0020000  0  6G14G21G 1G25G15G29
  -5125369.85549  -3693057.10945  24138910.836    24138910.540    24138916.428
       224.000         162.000
  26497276.55949  20997325.41545  23781880.972    23781880.467    23781887.244
       219.000         155.000
  18132710.22449  14298418.02946  23518772.038    23518771.513    23518776.855
       225.000         167.000
  -7202828.41849  -5367646.75947  21563866.292    21563866.136    21563869.898
       247.000         209.000
 -10120443.56349  -7734500.58447  21579582.495    21579581.796    21579586.697
       244.000         201.000
   4777211.49949   3730690.95447  21827964.997    21827964.894    21827968.701
       243.000         201.000
 98  7 30  0 45 30.0020000  0  6G14G21G 1G25G15G29
  -5160036.80649  -3720070.24545  24132313.855    24132313.507    24132319.266
       225.000         162.000
  26617714.33449  21091172.95845  23804799.478    23804798.980    23804805.898
       218.000         155.000
  18253342.05349  14392416.81246  23541727.583    23541727.022    23541732.450
       225.000         166.000
  -7173276.00149  -5344618.88447  21569489.996    21569489.813    21569493.559
       248.000         209.000
 -10093992.41549  -7713889.30047  21584616.017    21584615.322    21584620.178
       244.000         201.000
   4864889.67649   3799011.59947  21844649.614    21844649.504    21844653.336
       243.000         201.000
 98  7 30  0 46  0.0020000  0  6G14G21G 1G25G15G29
  -5194664.37849  -3747052.70045  24125724.379    24125724.068    24125729.700
       226.000         162.000
  26738414.44549  21185224.89845  23827767.856    23827767.430    23827774.490
       218.000         154.000
  18374025.15449  14486455.56046  23564692.798    23564692.263    23564697.723
       225.000         166.000
  -7143192.52349  -5321177.20147  21575214.696    21575214.490    21575218.256
       247.000         209.000
 -10066917.43749  -7692791.91447  21589768.226    21589767.505    21589772.369
       243.000         201.000
   4952716.63749   3867448.17947  21861362.522    21861362.404    21861366.246
       244.000         201.000
 98  7 30  0 46 30.0030000  0  6G14G21G 1G25G15G29
  -5229262.80449  -3774012.44745  24119140.551    24119140.217    24119145.693
       225.000         162.000
  26859362.86349  21279470.31445  23850783.564    23850783.167    23850790.299
       219.000         155.000
  18494745.69949  14580523.46946  23587665.211    23587664.649    23587670.149
       225.000         166.000
  -7112588.25349  -5297329.70347  21581038.445    21581038.268    21581041.998
       248.000         209.000
 -10039221.16649  -7671210.40347  21595038.656    21595037.936    21595042.776
       243.000         201.000
   5040703.28649   3936009.19247  21878105.852    21878105.732    21878109.565
       243.000         201.000
 98  7 30  0 47  0.0030000  0  6G14G21G 1G25G15G29
  -5263836.09849  -3800952.61845  24112561.375    24112561.061    24112566.391
       225.000         162.000
  26980566.51549  21373914.61845  23873847.941    23873847.598    23873854.700
       221.000         154.000
  18615506.59149  14674622.81946  23610645.357    23610644.811    23610650.256
       225.000         166.000
  -7081461.96549  -5273075.43847  21586961.590    21586961.418    21586965.102
       248.000         209.000
 -10010902.62749  -7649144.01147  21600427.491    21600426.776    21600431.590
       243.000         201.000
   5128872.55149   4004712.49647  21894883.911    21894883.787    21894887.644
       244.000         201.000
 98  7 30  0 47 30.0030000  0  6G14G21G 1G25G15G29
  -5298379.02649  -3827869.11645  24105987.911    24105987.632    24105993.059
       223.000         161.000
  27102032.31949  21468563.20445  23896962.320    23896961.858    23896968.887
       220.000         154.000
  18736315.95349  14768759.93546  23633634.677    23633634.146    23633639.584
       225.000         166.000
  -7049825.77049  -5248423.84047  21592981.749    21592981.580    21592985.252
       248.000         209.000
  -9981960.19749  -7626591.46847  21605935.017    21605934.323    21605939.153
       244.000         201.000
   5217244.76749   4073573.94747  21911700.568    21911700.446    21911704.321
       243.000         201.000
 98  7 30  0 48  0.0030000  0  6G14G21G 1G25G15G29
  -5332896.58249  -3854765.86445  24099419.339    24099419.029    24099424.419
       224.000         162.000
  27223754.74549  21563411.74545  23920125.464    23920125.042    23920131.940
       219.000         154.000
  18857183.65649  14862942.51946  23656635.073    23656634.503    23656639.978
       224.000         165.000
  -7017689.09649  -5223382.25947  21599097.191    21599096.996    21599100.672
       248.000         209.000
  -9952393.73649  -7603552.67247  21611561.321    21611560.638    21611565.461
       244.000         201.000
   5305814.76549   4142589.51247  21928554.862    21928554.747    21928558.639
       244.000         200.000
 98  7 30  0 48 30.0030000  0  6G14G21G 1G25G15G29
  -5367387.43849  -3881641.78945  24092855.931    24092855.573    24092861.016
       223.000         161.000
  27345733.19849  21658459.79345  23943337.427    23943336.932    23943343.881
       221.000         154.000
  18978124.50949  14957182.09946  23679649.310    23679648.771    23679654.320
       224.000         164.000
  -6985038.56949  -5197940.26647  21605310.364    21605310.175    21605313.812
       248.000         209.000
  -9922201.93249  -7580026.59447  21617306.654    21617305.981    21617310.774
       244.000         202.000
   5394565.21649   4211745.69647  21945443.527    21945443.416    21945447.272
       244.000         200.000
 98  7 30  0 49  0.0030000  0  6G14G21G 1G25G15G29
  -5401850.43649  -3908496.01245  24086297.754    24086297.444    24086302.869
       224.000         161.000
  27467979.56549  21753716.61045  23966600.326    23966599.778    23966606.743
       219.000         155.000
  19099139.01049  15051479.05946  23702677.532    23702677.048    23702682.631
       222.000         163.000
  -6951860.27049  -5172087.02847  21611623.993    21611623.794    21611627.416
       247.000         209.000
  -9891385.94549  -7556014.14147  21623170.781    21623170.101    21623174.890
       244.000         202.000
   5483478.90849   4281029.07747  21962363.281    21962363.152    21962366.991
       244.000         200.000
 98  7 30  0 49 30.0030000  0  6G14G21G 1G25G15G29
  -5436275.30249  -3935320.52045  24079746.910    24079746.578    24079751.946
       222.000         161.000
  27590494.41449  21849182.63745  23989914.161    23989913.708    23989920.700
       219.000         154.000
  19220230.09649  15145835.70845  23725720.459    23725719.905    23725725.468
       220.000         162.000
  -6918136.66449  -5145808.87347  21618041.376    21618041.191    21618044.803
       247.000         209.000
  -9859938.26649  -7531509.46247  21629155.092    21629154.418    21629159.178
       244.000         202.000
   5572543.13749   4350429.76147  21979311.618    21979311.499    21979315.361
       244.000         200.000
 98  7 30  0 50  0.0030000  0  6G14G21G 1G25G15G29
  -5470665.20249  -3962117.77945  24073202.731    24073202.368    24073207.816
       222.000         161.000
  27713283.23349  21944862.13845  24013280.160    24013279.722    24013286.773
       218.000         154.000
  19341385.80149  15240242.69545  23748775.516    23748774.986    23748780.664
       221.000         161.000
  -6883859.75849  -5119099.58047  21624564.035    21624563.856    21624567.447
       248.000         209.000
  -9827860.58749  -7506513.87547  21635259.287    21635258.592    21635263.361
       244.000         202.000
   5661752.11849   4419943.23947  21996287.516    21996287.417    21996291.312
       244.000         200.000
 98  7 30  0 50 30.0030000  0  6G14G21G 1G25G15G29
  -5505007.06449  -3988877.61545  24066667.684    24066667.282    24066672.832
       223.000         161.000
  27836345.93149  22040755.06045  24036698.306    24036697.731    24036704.991
       216.000         153.000
  19462584.88649  15334683.49345  23771838.959    23771838.528    23771844.071
       221.000         161.000
  -6849036.03049  -5091964.19247  21631190.778    21631190.578    21631194.177
       248.000         209.000
  -9795155.68249  -7481029.54347  21641482.794    21641482.143    21641486.877
       244.000         202.000
   5751106.70149   4489570.17247  22013291.186    22013291.076    22013294.995
       244.000         201.000
 98  7 30  0 51  0.0030000  0  6G14G21G 1G25G15G29
  -5539289.44949  -4015591.09845  24060143.808    24060143.449    24060149.114
       221.000         161.000
  27959686.46949  22136864.47545  24060169.170    24060168.592    24060175.987
       214.000         152.000
  19583819.61749  15429152.06545  23794909.352    23794908.867    23794914.318
       222.000         162.000
  -6813667.58849  -5064404.35547  21637921.131    21637920.939    21637924.548
       247.000         209.000
  -9761819.66149  -7455053.43247  21647826.446    21647825.782    21647830.520
       244.000         202.000
   5840628.02849   4559327.03047  22030326.554    22030326.462    22030330.366
       244.000         201.000
 98  7 30  0 51 30.0030000  0  6G14G21G 1G25G15G29
  -5573514.71849  -4042260.07845  24053630.875    24053630.548    24053636.286
       222.000         161.000
  28083291.83349  22233180.26245  24083690.437    24083689.978    24083697.332
       215.000         151.000
  19705087.73949  15523646.66045  23817986.032    23817985.532    23817990.892
       221.000         162.000
  -6777761.29349  -5036425.41147  21644753.812    21644753.629    21644757.259
       247.000         209.000
  -9727852.04449  -7428585.16847  21654290.263    21654289.597    21654294.346
       244.000         202.000
   5930330.93749   4629225.38347  22047396.496    22047396.405    22047400.278
       244.000         201.000
 98  7 30  0 52  0.0030000  0  6G14G21G 1G25G15G29
  -5607682.30449  -4068884.10045  24047128.955    24047128.620    24047134.357
       222.000         162.000
  28207163.47249  22329703.52445  24107262.469    24107262.059    24107269.261
       216.000         149.000
  19826375.69149  15618156.70445  23841066.260    23841065.893    23841071.291
       221.000         162.000
  -6741334.16349  -5008040.62047  21651685.606    21651685.430    21651689.079
       247.000         209.000
  -9693254.66149  -7401626.18347  21660873.948    21660873.259    21660877.995
       244.000         202.000
   6020215.67149   4699265.42047  22064500.973    22064500.874    22064504.745
       244.000         201.000
 98  7 30  0 52 30.0030000  0  6G14G21G 1G25G15G29
  -5641796.94849  -4095466.89246  24040637.100    24040636.793    24040642.495
       223.000         163.000
  28331298.86149  22426432.29245  24130884.934    24130884.396    24130891.486
       215.000         149.000
  19947701.17149  15712695.98245  23864153.752    23864153.340    23864158.913
       220.000         162.000
  -6704381.29249  -4979246.15847  21658717.513    21658717.332    21658720.986
       247.000         209.000
  -9658020.15449  -7374170.73347  21667578.823    21667578.128    21667582.871
       244.000         202.000
   6110278.93049   4769444.57347  22081639.451    22081639.369    22081643.231
       244.000         201.000
 98  7 30  0 53  0.0030000  0  6G14G21G 1G25G15G29
  -5675888.95849  -4122032.01846  24034149.544    24034149.235    24034154.937
       224.000         163.000
  28455684.67249  22523356.20345  24154554.972    24154554.430    24154561.350
       215.000         149.000
  20069067.18149  15807266.86245  23887248.939    23887248.571    23887254.183
       221.000         162.000
  -6666910.03649  -4950047.76447  21665848.060    21665847.886    21665851.481
       247.000         208.000
  -9622156.46549  -7346225.01947  21674403.471    21674402.763    21674407.531
       244.000         202.000
   6200503.78349   4839749.64147  22098808.681    22098808.593    22098812.481
       243.000         200.000
 98  7 30  0 53 30.0030000  0  6G14G21G 1G25G15G29
  -5709977.60349  -4148594.55446  24027662.679    24027662.356    24027668.036
       224.000         163.000
  28580315.64649  22620471.13045  24178271.503    24178270.891    24178277.857
       213.000         149.000
  20190484.83449  15901877.96945  23910353.995    23910353.566    23910359.278
       220.000         162.000
  -6628926.27949  -4920450.01847  21673076.086    21673075.892    21673079.490
       247.000         208.000
  -9585662.07049  -7317787.84047  21681348.102    21681347.425    21681352.197
       245.000         202.000
   6290879.14549   4910171.98347  22116006.517    22116006.437    22116010.339
       243.000         200.000
 98  7 30  0 54  0.0030000  0  6G14G21G 1G25G15G29
  -5744046.60849  -4175141.78946  24021179.448    24021179.165    24021184.805
       224.000         164.000
  28705198.61949  22717782.43445  24202036.029    24202035.430    24202042.383
       214.000         147.000
  20311958.45449  15996532.67245  23933469.745    23933469.284    23933475.008
       220.000         161.000
  -6590409.74849  -4890437.12747  21680405.508    21680405.308    21680408.924
       246.000         208.000
  -9548526.63149  -7288851.15447  21688414.816    21688414.113    21688418.818
       244.000         202.000
   6381400.73949   4980708.27047  22133232.214    22133232.142    22133236.046
       244.000         200.000
 98  7 30  0 54 30.0030000  0  6G14G21G 1G25G15G29
  -5778100.18949  -4201676.98346  24014699.157    24014698.900    24014704.604
       224.000         163.000
  28830316.78749  22815276.97545  24225845.265    24225844.557    24225851.711
       214.000         146.000
  20433491.73149  16091233.88145  23956596.813    23956596.403    23956602.063
       219.000         162.000
  -6551356.78549  -4860006.23747  21687836.979    21687836.773    21687840.421
       247.000         208.000
  -9510752.38249  -7259416.69447  21695603.035    21695602.337    21695607.031
       245.000         202.000
   6472075.25749   5051363.72147  22150487.059    22150486.977    22150490.825
       244.000         200.000
 98  7 30  0 55  0.0030000  0  6G14G21G 1G25G15G29
  -5812136.36249  -4228198.63146  24008222.286    24008222.034    24008227.673
       224.000         164.000
  28955667.59549  22912952.80445  24249698.753    24249698.023    24249705.335
       213.000         146.000
  20555070.99449  16185970.91145  23979732.646    23979732.177    23979737.955
       218.000         161.000
  -6511773.12949  -4829161.82147  21695369.450    21695369.249    21695372.942
       246.000         208.000
  -9472345.63649  -7229489.37447  21702911.628    21702910.907    21702915.605
       245.000         202.000
   6562905.30649   5122140.36847  22167771.501    22167771.411    22167775.253
       244.000         200.000
 98  7 30  0 55 30.0030000  0  6G14G21G 1G25G15G29
  -5846139.26849  -4254694.35146  24001751.793    24001751.494    24001757.060
       224.000         163.000
  29081263.88849  23010819.92045  24273598.849    24273598.228    24273605.543
       212.000         146.000
  20676687.93249  16280737.28445  24002875.630    24002875.145    24002880.958
       219.000         161.000
  -6471647.34349  -4797894.96247  21703005.056    21703004.873    21703008.601
       247.000         208.000
  -9433306.79349  -7199069.51747  21710340.505    21710339.794    21710344.469
       245.000         202.000
   6653889.53649   5193037.15647  22185085.231    22185085.145    22185088.994
       244.000         200.000
 98  7 30  0 56  0.0030000  0  6G14G21G 1G25G15G29
  -5880076.17349  -4281138.63546  23995293.676    23995293.474    23995298.963
       224.000         163.000
  29207125.70949  23108893.94645  24297549.505    24297548.947    24297556.362
       210.000         144.000
  20798333.45149  16375525.96045  24026023.996    24026023.460    24026029.354
       220.000         161.000
  -6430966.96649  -4766195.95647  21710746.233    21710746.053    21710749.805
       246.000         208.000
  -9393635.06849  -7168156.50147  21717889.822    21717889.118    21717893.748
       244.000         202.000
   6745020.43549   5264048.23347  22202426.894    22202426.800    22202430.611
       242.000         199.000
 98  7 30  0 56 30.0030000  0  6G14G21G 1G25G15G29
  -5913953.30349  -4307536.36446  23988847.033    23988846.817    23988852.358
       223.000         163.000
  29333264.18149  23207183.54445  24321552.722    24321552.311    24321559.783
       209.000         143.000
  20920027.69249  16470352.61045  24049181.546    24049181.108    24049187.022
       219.000         161.000
  -6389751.78749  -4734080.22247  21718589.247    21718589.064    21718592.787
       246.000         208.000
  -9353335.25849  -7136754.06947  21725558.600    21725557.889    21725562.552
       245.000         202.000
   6836294.01849   5335170.49347  22219795.634    22219795.566    22219799.375
       242.000         199.000
 98  7 30  0 57  0.0030000  0  6G14G21G 1G25G15G29
  -5947746.41149  -4333868.61546  23982416.310    23982415.999    23982421.618
       223.000         163.000
  29459709.86849  23305712.52945  24345614.489    24345614.143    24345621.751
       211.000         143.000
  21041782.69549  16565226.60345  24072350.836    24072350.389    24072356.332
       219.000         162.000
  -6347975.48349  -4701527.24647  21726538.969    21726538.800    21726542.546
       246.000         208.000
  -9312392.37549  -7104850.53647  21733349.812    21733349.096    21733353.732
       245.000         202.000
   6927716.40049   5406408.69947  22237192.759    22237192.652    22237196.526
       241.000         199.000
 98  7 30  0 57 30.0030000  0  6G14G21G 1G25G15G29
  -5981450.94849  -4360131.84046  23976002.415    23976002.149    23976007.809
       225.000         163.000
  29586449.22449  23404470.33145  24369732.314    24369731.845    24369739.581
       209.000         141.000
  21163576.63349  16660130.92745  24095527.566    24095527.054    24095532.954
       219.000         161.000
  -6305655.55449  -4668550.66647  21734592.170    21734592.015    21734595.779
       246.000         208.000
  -9270818.87349  -7072455.61347  21741260.968    21741260.249    21741264.889
       244.000         202.000
   7019270.90249   5477749.84747  22254614.921    22254614.821    22254618.825
       241.000         199.000
 98  7 30  0 58  0.0030000  0  6G14G21G 1G25G15G29
  -6015063.73349  -4386323.57446  23969606.159    23969605.857    23969611.413
       225.000         164.000
  29713483.13049  23503457.69045  24393906.088    24393905.730    24393913.354
       208.000         140.000
  21285415.19349  16755070.02545  24118712.671    24118712.273    24118718.130
       217.000         160.000
  -6262796.06549  -4635153.65047  21742748.050    21742747.899    21742751.643
       246.000         208.000
  -9228601.57849  -7039559.03147  21749294.637    21749293.937    21749298.587
       244.000         202.000
   7110980.68349   5549211.99747  22272066.671    22272066.589    22272070.676
       241.000         198.000
 98  7 30  0 58 30.0030000  0  6G14G21G 1G25G15G29
  -6048614.07049  -4412466.66146  23963221.747    23963221.437    23963226.920
       225.000         165.000
  29840782.87449  23602652.16845  24418130.670    24418130.090    24418137.792
       210.000         139.000
  21407285.78849  16850034.07445  24141903.908    24141903.507    24141909.363
       217.000         158.000
  -6219403.56849  -4601341.29547  21751005.359    21751005.202    21751008.986
       246.000         208.000
  -9185740.78949  -7006161.02447  21757450.727    21757450.031    21757454.758
       244.000         202.000
   7202861.18949   5620807.18147  22289550.995    22289550.905    22289554.952
       241.000         198.000
 98  7 30  0 59  0.0030000  0  6G14G21G 1G25G15G29
  -6082108.91749  -4438566.49746  23956847.946    23956847.680    23956852.962
       227.000         166.000
  29968324.31449  23702034.99245  24442401.379    24442400.638    24442408.151
       212.000         140.000
  21529147.69649  16944991.35845  24165093.537    24165092.974    24165098.919
       214.000         157.000
  -6175488.05449  -4567121.39647  21759362.183    21759362.027    21759365.836
       246.000         208.000
  -9142245.01149  -6972268.21847  21765727.644    21765726.961    21765731.778
       244.000         202.000
   7294899.16149   5692525.06147  22307065.301    22307065.200    22307069.129
       242.000         198.000
 98  7 30  0 59 30.0030000  0  6G14G21G 1G25G15G29
  -6115546.11949  -4464621.40046  23950485.062    23950484.745    23950490.031
       225.000         166.000
  30096109.29249  23801607.58645  24466718.314    24466717.662    24466724.957
       209.000         139.000
  21651007.98449  17039947.38845  24188282.733    24188282.181    24188288.174
       216.000         156.000
  -6131064.20649  -4532505.39947  21767815.762    21767815.585    21767819.400
       247.000         208.000
  -9098109.85349  -6937877.19447  21774126.261    21774125.586    21774130.466
       244.000         202.000
   7387092.59549   5764364.08347  22324609.207    22324609.104    22324612.935
       241.000         197.000
 98  7 30  1  0  0.0030000  0  6G14G21G 1G25G15G29
  -6148942.61549  -4490644.61146  23944129.870    23944129.564    23944134.805
       226.000         166.000
  30224125.93149  23901360.67545  24491079.173    24491078.478    24491085.826
       210.000         138.000
  21772870.71449  17134905.30545  24211472.437    24211471.877    24211477.958
       216.000         157.000
  -6086142.36849  -4497501.35247  21776364.130    21776363.957    21776367.780
       246.000         208.000
  -9053342.34249  -6902993.42547  21782645.247    21782644.579    21782649.474
       244.000         202.000
   7479428.84949   5836314.39247  22342180.220    22342180.121    22342183.975
       241.000         197.000
 98  7 30  1  0 30.0030000  0  6G14G21G 1G25G15G29
  -6182278.27949  -4516620.40346  23937786.269    23937785.945    23937791.137
       226.000         167.000
  30352379.39149  24001298.34245  24515485.169    24515484.543    24515491.634
       210.000         137.000
  21894751.56349  17229877.36645  24234665.509    24234665.041    24234671.125
       218.000         158.000
  -6040717.10749  -4462105.02647  21785008.243    21785008.073    21785011.896
       246.000         208.000
  -9007940.11649  -6867615.07747  21791285.045    21791284.378    21791289.280
       244.000         202.000
   7571902.88249   5908372.06247  22359777.381    22359777.328    22359781.249
       241.000         197.000
 98  7 30  1  1  0.0030000  0  6G14G21G 1G25G15G29
  -6215530.14349  -4542530.90246  23931458.502    23931458.266    23931463.458
       226.000         168.000
  30480892.98449  24101438.69945  24539940.565    24539939.933    24539946.987
       210.000         136.000
  22016673.84249  17324881.69245  24257866.602    24257866.109    24257872.285
       218.000         158.000
  -5994797.40349  -4426323.42547  21793746.446    21793746.283    21793750.114
       246.000         208.000
  -8961898.89749  -6831738.80847  21800046.398    21800045.722    21800050.638
       244.000         202.000
   7664506.17549   5980530.46147  22377399.263    22377399.179    22377403.109
       240.000         196.000
 98  7 30  1  1 30.0030000  0  6G14G21G 1G25G15G29
  -6248707.63649  -4568383.44146  23925144.995    23925144.737    23925150.040
       227.000         169.000
  30609662.46049  24201778.42845  24564444.710    24564443.859    24564451.177
       211.000         136.000
  22138648.35449  17419926.70845  24281077.605    24281077.140    24281083.279
       216.000         158.000
  -5948368.51449  -4390145.05647  21802581.572    21802581.407    21802585.238
       247.000         208.000
  -8915221.61149  -6795366.90347  21808928.780    21808928.123    21808933.023
       244.000         202.000
   7757253.04149   6052800.73147  22395048.395    22395048.301    22395052.241
       240.000         196.000
 98  7 30  1  2  0.0030000  0  6G14G21G 1G25G15G29
  -6281811.44849  -4594178.58646  23918845.561    23918845.278    23918850.562
       227.000         169.000
  30738686.80349  24302316.76745  24588997.368    24588996.621    24589003.836
       211.000         136.000
  22260677.60249  17515014.36445  24304299.207    24304298.714    24304304.760
       217.000         157.000
  -5901408.40649  -4353552.75147  21811517.782    21811517.621    21811521.426
       247.000         209.000
  -8867901.94249  -6758494.44647  21817933.391    21817932.739    21817937.646
       244.000         202.000
   7850160.15149   6125195.85847  22412727.982    22412727.901    22412731.890
       240.000         196.000
 98  7 30  1  2 30.0040000  0  6G14G21G 1G25G15G29
  -6314856.40749  -4619927.86346  23912557.294    23912556.981    23912562.284
       227.000         170.000
  30867970.65049  24403057.29245  24613599.233    24613598.579    24613605.836
       209.000         135.000
  22382756.86249  17610140.99245  24327530.257    24327529.682    24327535.606
       216.000         157.000
  -5853901.07449  -4316534.03947  21820558.137    21820557.962    21820561.748
       247.000         209.000
  -8819940.75149  -6721122.10047  21827060.113    21827059.441    21827064.354
       244.000         202.000
   7943229.54149   6197717.44347  22430438.510    22430438.411    22430442.443
       240.000         196.000
 98  7 30  1  3  0.0040000  0  6G14G21G 1G25G15G29
  -6347846.84849  -4645634.65546  23906279.372    23906279.107    23906284.398
       228.000         170.000
  30997505.64249  24503993.51545  24638248.936    24638248.445    24638255.622
       211.000         135.000
  22504872.84349  17705296.23745  24350768.112    24350767.575    24350773.572
       215.000         156.000
  -5805833.03849  -4279078.41747  21829705.147    21829704.980    21829708.728
       247.000         209.000
  -8771337.31849  -6683249.30547  21836309.100    21836308.428    21836313.300
       245.000         203.000
   8036454.79049   6270360.47747  22448178.740    22448178.629    22448182.679
       240.000         196.000
 98  7 30  1  3 30.0040000  0  6G14G21G 1G25G15G29
  -6380795.46249  -4671308.86246  23900009.503    23900009.218    23900014.524
       228.000         171.000
  31127285.73149  24605120.74545  24662945.386    24662944.947    24662952.142
       213.000         135.000
  22627007.78049  17800466.25045  24374009.629    24374009.095    24374015.138
       215.000         155.000
  -5757194.31049  -4241178.10347  21838960.810    21838960.652    21838964.344
       247.000         209.000
  -8722100.56449  -6644883.01747  21845678.602    21845677.902    21845682.783
       244.000         203.000
   8129824.66149   6343116.19647  22465946.480    22465946.339    22465950.448
       239.000         196.000
 98  7 30  1  4  0.0040000  0  6G14G21G 1G25G15G29
  -6413693.15849  -4696943.39146  23893749.256    23893748.942    23893754.238
       226.000         171.000
  31257317.23949  24706443.87545  24687689.669    24687689.259    24687696.349
       211.000         135.000
  22749160.22149  17895649.91645  24397254.480    24397254.032    24397259.944
       214.000         155.000
  -5708006.89749  -4202850.24347  21848320.837    21848320.692    21848324.362
       246.000         208.000
  -8672228.55949  -6606021.72547  21855168.957    21855168.242    21855173.111
       245.000         203.000
   8223315.23549   6415965.97347  22483737.147    22483737.043    22483741.132
       239.000         196.000
 98  7 30  1  4 30.0040000  0  6G14G21G 1G25G15G29
  -6446528.20949  -4722529.09846  23887500.853    23887500.627    23887505.955
       227.000         171.000
  31387608.47049  24807969.37445  24712483.302    24712482.925    24712490.176
       212.000         134.000
  22871338.05949  17990853.35545  24420504.148    24420503.698    24420509.742
       214.000         154.000
  -5658277.09449  -4164099.74047  21857784.091    21857783.941    21857787.657
       247.000         208.000
  -8621711.17449  -6566657.54047  21864782.111    21864781.377    21864786.285
       245.000         203.000
   8316924.91849   6488908.56547  22501550.502    22501550.391    22501554.490
       239.000         196.000
 98  7 30  1  5  0.0040000  0  6G14G21G 1G25G15G29
  -6479304.73149  -4748069.21246  23881263.652    23881263.376    23881268.751
       227.000         171.000
  31518145.75949  24909686.61545  24737323.869    24737323.267    24737330.854
       214.000         134.000
  22993523.18349  18086062.50145  24443755.243    24443754.791    24443760.829
       213.000         153.000
  -5608037.31449  -4124951.85947  21867344.366    21867344.223    21867347.967
       247.000         208.000
  -8570561.89049  -6526800.96947  21874515.488    21874514.788    21874519.688
       245.000         203.000
   8410634.43349   6561928.94547  22519382.842    22519382.726    22519386.829
       239.000         195.000
 98  7 30  1  5 30.0040000  0  6G14G21G 1G25G15G29
  -6512029.75749  -4773569.18946  23875036.217    23875035.897    23875041.376
       227.000         171.000
  31648930.63249  25011596.78045  24762211.618    24762211.027    24762218.801
       213.000         134.000
  23115717.08349  18181278.45545  24467007.851    24467007.423    24467013.663
       212.000         152.000
  -5557308.21749  -4085422.68647  21876997.858    21876997.689    21877001.431
       247.000         209.000
  -8518784.71049  -6486455.13147  21884368.379    21884367.687    21884372.573
       246.000         204.000
   8504451.83649   6635033.39547  22537235.636    22537235.527    22537239.679
       239.000         194.000
 98  7 30  1  6  0.0040000  0  6G14G21G 1G25G15G29
  -6544695.26749  -4799022.78846  23868820.124    23868819.770    23868825.308
       227.000         172.000
  31779969.34749  25113704.73845  24787147.608    24787147.026    24787155.039
       213.000         133.000
  23237940.08349  18276517.09345  24490266.021    24490265.622    24490271.990
       213.000         153.000
  -5506090.31249  -4045512.62747  21886744.303    21886744.152    21886747.906
       248.000         208.000
  -8466367.43949  -6445610.52847  21894343.098    21894342.422    21894347.250
       247.000         204.000
   8598393.48949   6708234.66447  22555112.133    22555112.041    22555116.201
       238.000         194.000
 98  7 30  1  6 30.0040000  0  6G14G21G 1G25G15G29
  -6577291.97749  -4824422.77646  23862617.114    23862616.774    23862622.375
       227.000         172.000
  31911261.00549  25216009.79145  24812131.747    24812131.008    24812139.118
       213.000         134.000
  23360192.41549  18371778.58945  24513529.970    24513529.507    24513535.952
       213.000         153.000
  -5454365.04549  -4005207.22447  21896587.275    21896587.108    21896590.881
       248.000         208.000
  -8413311.80349  -6404268.49047  21904439.317    21904438.613    21904443.411
       247.000         204.000
   8692474.42849   6781544.46247  22573015.144    22573015.017    22573019.190
       238.000         194.000
 98  7 30  1  7  0.0040000  0  6G14G21G 1G25G15G29
  -6609796.93049  -4849751.27546  23856431.524    23856431.246    23856436.909
       227.000         173.000
  32042813.40349  25318518.00845  24837165.457    24837164.688    24837172.733
       214.000         134.000
  23482477.87049  18467065.88445  24536800.251    24536799.747    24536806.070
       215.000         153.000
  -5402122.75049  -3964498.94047  21906528.656    21906528.486    21906532.262
       248.000         208.000
  -8359621.32349  -6362431.77247  21914656.310    21914655.610    21914660.413
       248.000         204.000
   8786710.13549   6854974.86247  22590947.576    22590947.482    22590951.638
       239.000         194.000
 98  7 30  1  7 30.0040000  0  6G14G21G 1G25G15G29
  -6642196.03549  -4874997.29546  23850266.171    23850265.894    23850271.480
       228.000         173.000
  32174626.55049  25421229.41045  24862248.850    24862248.104    24862256.119
       211.000         134.000
  23604805.36049  18562385.95045  24560078.569    24560078.071    24560084.341
       216.000         155.000
  -5349349.84449  -3923377.19647  21916570.992    21916570.814    21916574.599
       247.000         208.000
  -8305293.31249  -6320098.27547  21924994.618    21924993.932    21924998.710
       248.000         204.000
   8881111.61249   6928534.42447  22608911.675    22608911.556    22608915.704
       239.000         195.000
 98  7 30  1  8  0.0040000  0  6G14G21G 1G25G15G29
  -6674475.54949  -4900150.12846  23844123.593    23844123.307    23844128.845
       228.000         173.000
  32306688.75249  25524134.88745  24887379.645    24887378.995    24887387.151
       214.000         133.000
  23727162.59349  18657729.18545  24583362.480    24583361.923    24583368.145
       215.000         155.000
  -5296035.40449  -3881833.47847  21926716.329    21926716.170    21926719.984
       247.000         208.000
  -8250328.65249  -6277268.68647  21935454.079    21935453.372    21935458.138
       247.000         204.000
   8975659.48449   7002208.06747  22626903.596    22626903.471    22626907.628
       239.000         195.000
 98  7 30  1  8 30.0040000  0  6G14G21G 1G25G15G29
  -6706630.82349  -4925206.15046  23838004.611    23838004.333    23838009.806
       229.000         173.000
  32438986.25549  25627223.70945  24912555.156    24912554.537    24912562.756
       215.000         132.000
  23849525.35449  18753076.74545  24606647.401    24606646.853    24606653.166
       215.000         156.000
  -5242183.60849  -3839871.04347  21936963.968    21936963.796    21936967.648
       247.000         208.000
  -8194728.76149  -6233944.11247  21946034.422    21946033.727    21946038.479
       248.000         204.000
   9070352.87749   7075995.10447  22644923.196    22644923.086    22644927.230
       239.000         195.000
 98  7 30  1  9  0.0040000  0  6G14G21G 1G25G15G29
  -6738684.81049  -4950183.25046  23831905.043    23831904.715    23831910.080
       229.000         174.000
  32571503.92849  25730484.15744  24937772.646    24937771.830    24937780.269
       214.000         129.000
  23971892.42249  18848427.67045  24629933.094    24629932.613    24629938.971
       215.000         156.000
  -5187821.95449  -3797511.31347  21947308.589    21947308.454    21947312.349
       247.000         208.000
  -8138495.19749  -6190125.76947  21956735.323    21956734.619    21956739.366
       247.000         204.000
   9165172.34149   7149880.37347  22662966.747    22662966.615    22662970.768
       239.000         194.000
 98  7 30  1  9 30.0040000  0  6G14G21G 1G25G15G29
  -6770662.17349  -4975100.63046  23825819.975    23825819.588    23825824.962
       230.000         174.000
  32704244.89749  25833918.52344  24963032.406    24963031.883    24963040.020
       214.000         130.000
  24094258.02549  18943777.43745  24653218.494    24653218.102    24653224.426
       215.000         156.000
  -5132961.61149  -3754762.99347  21957748.232    21957748.087    21957751.982
       247.000         208.000
  -8081621.96349  -6145808.98047  21967557.945    21967557.217    21967561.978
       247.000         204.000
   9260101.34149   7223850.99347  22681031.152    22681031.019    22681035.174
       239.000         194.000
 98  7 30  1 10  0.0040000  0  6G14G21G 1G25G15G29
  -6802573.43849  -4999966.51546  23819747.338    23819747.053    23819752.434
       230.000         175.000
  32837204.97049  25937523.63344  24988333.936    24988333.337    24988341.554
       213.000         131.000
  24216611.80049  19039117.99145  24676501.820    24676501.293    24676507.555
       216.000         156.000
  -5077618.34949  -3711638.37147  21968279.667    21968279.517    21968283.434
       247.000         208.000
  -8024111.72049  -6100995.82347  21978501.709    21978501.010    21978505.806
       247.000         204.000
   9355131.75949   7297900.64647  22699114.830    22699114.700    22699118.859
       239.000         194.000
 98  7 30  1 10 30.0040000  0  7G14G21G22G 1G25G15G29
  -6834414.96149  -5024778.06146  23813688.128    23813687.817    23813693.197
       230.000         176.000
  32970402.27649  26041313.63744  25013680.454    25013679.899    25013688.187
       210.000         131.000
                                  25876375.113    25876376.757    25876375.628
       205.000          74.000
  24338970.33249  19134462.25445  24699785.894    24699785.404    24699791.677
       216.000         155.000
  -5021794.04249  -3668138.90947  21978902.719    21978902.552    21978906.428
       247.000         208.000
  -7965959.59749  -6055682.49347  21989567.719    21989566.980    21989571.863
       247.000         204.000
   9450279.07849   7372041.38147  22717220.721    22717220.596    22717224.826
       238.000         193.000
 98  7 30  1 11  0.0040000  0  7G14G21G22G 1G25G15G29
  -6866187.03849  -5049535.48546  23807642.058    23807641.773    23807647.121
       231.000         176.000
  33103858.12949  26145305.07644  25039075.998    25039075.690    25039083.965
       211.000         130.000
                                  25867906.018    25867907.380    25867920.097
       203.000          74.000
  24461354.64849  19229826.61245  24723074.906    24723074.391    24723080.686
       217.000         155.000
  -4965467.99649  -3624248.48147  21989621.209    21989621.052    21989624.896
       247.000         208.000
  -7907168.67849  -6009871.40447  22000755.232    22000754.505    22000759.403
       247.000         204.000
   9545542.70049   7446272.75047  22735348.812    22735348.706    22735352.925
       239.000         194.000
 98  7 30  1 11 30.0040000  0  7G14G21G22G 1G25G15G29
  -6897870.04149  -5074223.50346  23801613.024    23801612.756    23801618.023
       231.000         176.000
  33237584.99649  26249507.70744  25064523.316    25064522.982    25064531.429
       211.000         131.000
                                  25859426.997    25859429.370    25859440.793
       204.000          74.000
  24583763.89349  19325210.38445  24746368.711    24746368.156    24746374.393
       215.000         155.000
  -4908610.61249  -3579944.02747  22000440.822    22000440.662    22000444.522
       246.000         207.000
  -7847739.09649  -5963562.66047  22012064.308    22012063.605    22012068.446
       247.000         204.000
   9640938.45649   7520607.07447  22753502.026    22753501.938    22753506.140
       239.000         194.000
